DW8690 Weather Reports


Display with metric or nautical units.
time (UTC)temp
F
wind
direction
speed
MPH
gust
MPH
rain 1hr
in
rain 24hr
in
rain mn
in
humidity
%
barometer
mb
20200408212605 62 76 13.0 17.0 0.00 0.00 0.00 42 1007.7
20200408212505 62 76 11.0 17.0 0.00 0.00 0.00 42 1007.7
20200408212405 62 75 13.0 17.0 0.00 0.00 0.00 41 1007.6
20200408212305 62 75 11.0 17.0 0.00 0.00 0.00 41 1007.5
20200408212204 62 75 9.0 17.0 0.00 0.00 0.00 40 1007.5
20200408212104 62 75 9.0 17.0 0.00 0.00 0.00 40 1007.5
20200408212004 62 77 8.0 17.0 0.00 0.00 0.00 40 1007.6
20200408211905 62 79 9.0 17.0 0.00 0.00 0.00 40 1007.6
20200408211804 62 82 6.0 17.0 0.00 0.00 0.00 40 1007.5
20200408211704 62 87 11.0 17.0 0.00 0.00 0.00 40 1007.6
20200408211605 62 90 7.0 17.0 0.00 0.00 0.00 40 1007.4
20200408211505 63 90 9.0 17.0 0.00 0.00 0.00 40 1007.4
20200408211404 63 90 9.0 17.0 0.00 0.00 0.00 39 1007.6
20200408211304 63 90 11.0 17.0 0.00 0.00 0.00 40 1007.5
20200408211204 63 90 9.0 13.0 0.00 0.00 0.00 41 1007.4
20200408211104 63 90 4.0 8.0 0.00 0.00 0.00 41 1007.6
20200408211004 63 90 4.0 8.0 0.00 0.00 0.00 41 1007.5
20200408210904 63 90 4.0 10.0 0.00 0.00 0.00 40 1007.4
20200408210804 63 90 5.0 16.0 0.00 0.00 0.00 41 1007.5
20200408210704 65 90 5.0 16.0 0.00 0.00 0.00 39 1007.6
20200408210604 65 90 5.0 16.0 0.00 0.00 0.00 39 1007.7
20200408210505 65 90 5.0 16.0 0.00 0.00 0.00 39 1007.6
20200408210405 65 90 5.0 16.0 0.00 0.00 0.00 39 1007.6
20200408210305 65 90 5.0 16.0 0.00 0.00 0.00 39 1007.8
20200408210205 65 90 5.0 16.0 0.00 0.00 0.00 39 1007.6
20200408210105 65 90 5.0 16.0 0.00 0.00 0.00 39 1007.6
20200408210005 65 90 5.0 16.0 0.00 0.00 0.00 39 1007.5
20200408205904 65 90 9.0 16.0 0.00 0.00 0.00 39 1007.5
20200408205804 65 90 11.0 16.0 0.00 0.00 0.00 40 1007.3
20200408205704 65 90 8.0 14.0 0.00 0.00 0.00 40 1007.5
20200408205604 66 90 10.0 14.0 0.00 0.00 0.00 40 1007.4
20200408205505 66 90 7.0 17.0 0.00 0.00 0.00 40 1007.5
20200408205405 66 90 4.0 17.0 0.00 0.00 0.00 40 1007.4
20200408205305 66 90 6.0 17.0 0.00 0.00 0.00 40 1007.4
20200408205205 66 90 8.0 17.0 0.00 0.00 0.00 40 1007.5
20200408205104 65 90 11.0 17.0 0.00 0.00 0.00 40 1007.5
20200408205004 65 90 10.0 17.0 0.00 0.00 0.00 40 1007.5
20200408204904 65 90 6.0 17.0 0.00 0.00 0.00 40 1007.5
20200408204804 65 90 6.0 17.0 0.00 0.00 0.00 40 1007.3
20200408204704 65 90 8.0 17.0 0.00 0.00 0.00 40 1007.5
20200408204605 65 90 9.0 17.0 0.00 0.00 0.00 40 1007.5
20200408204506 65 90 7.0 16.0 0.00 0.00 0.00 40 1007.5
20200408204405 65 90 4.0 16.0 0.00 0.00 0.00 40 1007.5
20200408204304 64 90 8.0 16.0 0.00 0.00 0.00 41 1007.6
20200408204204 64 90 11.0 16.0 0.00 0.00 0.00 41 1007.6
20200408204106 64 90 5.0 13.0 0.00 0.00 0.00 41 1007.5
20200408204005 64 90 2.0 13.0 0.00 0.00 0.00 41 1007.6
20200408203904 63 90 5.0 17.0 0.00 0.00 0.00 40 1007.7
20200408203804 64 88 9.0 17.0 0.00 0.00 0.00 40 1007.6
20200408203704 64 88 7.0 17.0 0.00 0.00 0.00 40 1007.6
20200408203604 63 84 5.0 17.0 0.00 0.00 0.00 40 1007.7
20200408203504 63 82 4.0 17.0 0.00 0.00 0.00 41 1007.6
20200408203405 63 82 4.0 17.0 0.00 0.00 0.00 41 1007.7
20200408203303 63 82 8.0 17.0 0.00 0.00 0.00 40 1007.7
20200408203204 63 81 5.0 17.0 0.00 0.00 0.00 41 1007.7
20200408203104 63 81 8.0 17.0 0.00 0.00 0.00 40 1007.7
20200408203004 63 81 10.0 17.0 0.00 0.00 0.00 41 1007.7
20200408202904 63 80 8.0 17.0 0.00 0.00 0.00 41 1007.6
20200408202805 63 81 11.0 17.0 0.00 0.00 0.00 41 1007.6
20200408202704 63 81 8.0 13.0 0.00 0.00 0.00 42 1007.6
20200408202605 63 87 8.0 16.0 0.00 0.00 0.00 42 1007.7
20200408202504 63 90 4.0 18.0 0.00 0.00 0.00 43 1007.7
20200408202404 63 87 3.0 18.0 0.00 0.00 0.00 43 1007.7
20200408202304 63 81 6.0 18.0 0.00 0.00 0.00 43 1007.7
20200408202204 63 77 6.0 18.0 0.00 0.00 0.00 43 1007.8
20200408202104 62 74 5.0 18.0 0.00 0.00 0.00 43 1007.7
20200408202004 62 71 6.0 18.0 0.00 0.00 0.00 43 1007.7
20200408201905 62 67 4.0 18.0 0.00 0.00 0.00 43 1007.7
20200408201804 62 65 6.0 18.0 0.00 0.00 0.00 42 1007.7
20200408201704 62 61 9.0 18.0 0.00 0.00 0.00 43 1007.7
20200408201604 62 55 11.0 18.0 0.00 0.00 0.00 42 1007.7
20200408201506 62 48 8.0 16.0 0.00 0.00 0.00 43 1007.7
20200408201404 63 45 9.0 15.0 0.00 0.00 0.00 43 1007.7
20200408201304 63 45 6.0 15.0 0.00 0.00 0.00 43 1007.7
20200408201204 63 45 10.0 15.0 0.00 0.00 0.00 43 1007.7
20200408201106 63 45 5.0 10.0 0.00 0.00 0.00 44 1007.7
20200408201005 63 45 4.0 9.0 0.00 0.00 0.00 44 1007.7
20200408200905 62 45 3.0 11.0 0.00 0.00 0.00 44 1007.7
20200408200805 62 45 4.0 11.0 0.00 0.00 0.00 44 1007.8
20200408200704 62 45 5.0 11.0 0.00 0.00 0.00 44 1007.8
20200408200604 62 45 5.0 11.0 0.00 0.00 0.00 44 1007.8
20200408200504 62 45 5.0 11.0 0.00 0.00 0.00 44 1007.8
20200408200404 62 45 5.0 12.0 0.00 0.00 0.00 44 1007.8
20200408200304 62 46 5.0 15.0 0.00 0.00 0.00 44 1007.7
20200408200204 62 46 5.0 15.0 0.00 0.00 0.00 44 1007.7
20200408200104 62 46 5.0 15.0 0.00 0.00 0.00 44 1007.7
20200408200004 62 46 5.0 15.0 0.00 0.00 0.00 44 1007.7
20200408195904 62 45 8.0 15.0 0.00 0.00 0.00 43 1007.8
20200408195805 62 45 6.0 15.0 0.00 0.00 0.00 43 1007.8
20200408195705 62 45 4.0 15.0 0.00 0.00 0.00 43 1007.7
20200408195605 62 45 4.0 15.0 0.00 0.00 0.00 44 1007.7
20200408195504 63 45 9.0 15.0 0.00 0.00 0.00 44 1007.8
20200408195404 63 45 8.0 15.0 0.00 0.00 0.00 44 1007.8
20200408195304 63 45 10.0 15.0 0.00 0.00 0.00 45 1007.8
20200408195204 63 45 8.0 12.0 0.00 0.00 0.00 45 1007.8
20200408195112 63 46 6.0 12.0 0.00 0.00 0.00 44 1007.8
20200408195006 63 46 6.0 13.0 0.00 0.00 0.00 44 1007.8
20200408194904 63 46 7.0 13.0 0.00 0.00 0.00 44 1007.8
20200408194804 63 46 4.0 15.0 0.00 0.00 0.00 44 1007.8
20200408194704 63 46 7.0 15.0 0.00 0.00 0.00 44 1008.0
20200408194605 62 45 4.0 15.0 0.00 0.00 0.00 44 1007.8
20200408194505 62 45 4.0 15.0 0.00 0.00 0.00 44 1007.8
20200408194404 62 46 8.0 15.0 0.00 0.00 0.00 44 1007.9
20200408194305 62 46 7.0 15.0 0.00 0.00 0.00 44 1007.8
20200408194204 62 46 4.0 15.0 0.00 0.00 0.00 44 1007.9
20200408194104 62 46 8.0 15.0 0.00 0.00 0.00 44 1007.9
20200408194004 62 45 10.0 15.0 0.00 0.00 0.00 44 1008.0
20200408193904 62 46 10.0 15.0 0.00 0.00 0.00 44 1007.9
20200408193804 63 46 6.0 15.0 0.00 0.00 0.00 45 1008.0
20200408193705 63 46 7.0 15.0 0.00 0.00 0.00 45 1008.0
20200408193604 63 46 6.0 15.0 0.00 0.00 0.00 45 1008.0
20200408193504 63 45 10.0 15.0 0.00 0.00 0.00 45 1008.0
20200408193405 63 45 8.0 14.0 0.00 0.00 0.00 45 1008.0
20200408193306 62 45 6.0 14.0 0.00 0.00 0.00 46 1008.1
20200408193206 62 45 4.0 14.0 0.00 0.00 0.00 46 1008.1
20200408193104 62 45 7.0 14.0 0.00 0.00 0.00 46 1008.1
20200408193006 62 45 7.0 14.0 0.00 0.00 0.00 46 1008.1
20200408192904 62 45 8.0 14.0 0.00 0.00 0.00 46 1008.0
20200408192804 62 45 6.0 14.0 0.00 0.00 0.00 46 1008.2
20200408192704 62 45 8.0 14.0 0.00 0.00 0.00 46 1008.2
20200408192604 62 45 8.0 13.0 0.00 0.00 0.00 46 1008.2
20200408192504 62 45 11.0 13.0 0.00 0.00 0.00 45 1008.2
20200408192404 62 45 8.0 13.0 0.00 0.00 0.00 45 1008.2
20200408192304 62 45 8.0 15.0 0.00 0.00 0.00 46 1008.2
20200408192204 62 45 5.0 15.0 0.00 0.00 0.00 48 1008.2
20200408192104 62 45 5.0 15.0 0.00 0.00 0.00 48 1008.2
20200408192005 62 45 5.0 15.0 0.00 0.00 0.00 48 1008.2
20200408191905 62 45 5.0 15.0 0.00 0.00 0.00 48 1008.1
20200408191804 62 45 5.0 15.0 0.00 0.00 0.00 48 1008.2
20200408191704 62 45 5.0 15.0 0.00 0.00 0.00 48 1008.3
20200408191604 62 45 5.0 15.0 0.00 0.00 0.00 48 1008.2
20200408191504 62 46 6.0 15.0 0.00 0.00 0.00 48 1008.3
20200408191404 62 46 10.0 15.0 0.00 0.00 0.00 48 1008.1
20200408191304 62 46 5.0 11.0 0.00 0.00 0.00 50 1008.3
20200408191205 62 46 4.0 11.0 0.00 0.00 0.00 50 1008.2
20200408191105 62 39 5.0 11.0 0.00 0.00 0.00 49 1008.3
20200408191005 62 35 7.0 11.0 0.00 0.00 0.00 49 1008.3
20200408190904 62 30 6.0 12.0 0.00 0.00 0.00 49 1008.3
20200408190804 62 25 5.0 12.0 0.00 0.00 0.00 49 1008.4
20200408190704 62 22 6.0 12.0 0.00 0.00 0.00 50 1008.4
20200408190604 62 20 5.0 12.0 0.00 0.00 0.00 50 1008.4
20200408190504 62 18 7.0 12.0 0.00 0.00 0.00 50 1008.4
20200408190404 62 15 5.0 12.0 0.00 0.00 0.00 50 1008.3
20200408190304 61 16 4.0 12.0 0.00 0.00 0.00 50 1008.5
20200408190204 61 18 8.0 12.0 0.00 0.00 0.00 50 1008.4
20200408190104 61 22 8.0 12.0 0.00 0.00 0.00 50 1008.5
20200408190004 61 27 8.0 12.0 0.00 0.00 0.00 50 1008.5
20200408185904 61 33 8.0 12.0 0.00 0.00 0.00 50 1008.5
20200408185804 61 37 4.0 12.0 0.00 0.00 0.00 51 1008.7
20200408185705 61 40 4.0 11.0 0.00 0.00 0.00 51 1008.7
20200408185605 61 42 4.0 11.0 0.00 0.00 0.00 52 1008.6
20200408185505 61 44 6.0 11.0 0.00 0.00 0.00 51 1008.7
20200408185404 61 46 8.0 11.0 0.00 0.00 0.00 51 1008.7
20200408185304 61 46 7.0 11.0 0.00 0.00 0.00 51 1008.7
20200408185204 60 46 7.0 11.0 0.00 0.00 0.00 52 1008.6
20200408185104 60 45 6.0 11.0 0.00 0.00 0.00 51 1008.7
20200408185005 60 45 5.0 11.0 0.00 0.00 0.00 52 1008.8
20200408184905 60 45 4.0 11.0 0.00 0.00 0.00 52 1008.7
20200408184805 60 45 6.0 11.0 0.00 0.00 0.00 52 1008.8
20200408184706 60 45 6.0 11.0 0.00 0.00 0.00 52 1008.8
20200408184603 60 45 8.0 11.0 0.00 0.00 0.00 52 1008.7
20200408184504 60 45 5.0 11.0 0.00 0.00 0.00 52 1008.7
20200408184405 60 45 4.0 11.0 0.00 0.00 0.00 51 1008.7
20200408184305 60 45 7.0 11.0 0.00 0.00 0.00 51 1008.8
20200408184205 60 45 7.0 11.0 0.00 0.00 0.00 50 1008.8
20200408184104 60 45 6.0 12.0 0.00 0.00 0.00 50 1008.9
20200408184004 60 45 6.0 14.0 0.00 0.00 0.00 50 1008.8
20200408183904 60 45 8.0 14.0 0.00 0.00 0.00 51 1008.7
20200408183804 60 45 7.0 14.0 0.00 0.00 0.00 51 1008.8
20200408183705 60 46 5.0 14.0 0.00 0.00 0.00 51 1008.7
20200408183604 60 46 5.0 14.0 0.00 0.00 0.00 51 1008.8
20200408183505 60 46 5.0 14.0 0.00 0.00 0.00 51 1008.8
20200408183405 60 45 2.0 14.0 0.00 0.00 0.00 51 1008.9
20200408183305 60 45 5.0 15.0 0.00 0.00 0.00 51 1008.8
20200408183204 60 45 7.0 15.0 0.00 0.00 0.00 51 1008.9
20200408183105 60 45 10.0 15.0 0.00 0.00 0.00 51 1008.8
20200408183004 60 47 5.0 15.0 0.00 0.00 0.00 51 1008.7
20200408182904 60 47 7.0 15.0 0.00 0.00 0.00 50 1008.9
20200408182804 60 47 8.0 15.0 0.00 0.00 0.00 50 1008.8
20200408182704 61 47 8.0 15.0 0.00 0.00 0.00 50 1008.7
20200408182604 61 47 8.0 15.0 0.00 0.00 0.00 49 1008.8
20200408182504 61 47 9.0 15.0 0.00 0.00 0.00 49 1008.8
20200408182404 61 47 9.0 15.0 0.00 0.00 0.00 50 1008.7
20200408182305 61 47 8.0 15.0 0.00 0.00 0.00 50 1008.9
20200408182205 61 47 8.0 15.0 0.00 0.00 0.00 51 1008.8
20200408182105 61 48 11.0 15.0 0.00 0.00 0.00 51 1008.8
20200408182004 61 46 7.0 13.0 0.00 0.00 0.00 52 1008.8
20200408181904 60 45 6.0 13.0 0.00 0.00 0.00 52 1008.8
20200408181804 60 45 8.0 13.0 0.00 0.00 0.00 52 1008.8
20200408181704 60 46 5.0 13.0 0.00 0.00 0.00 52 1008.8
20200408181604 60 45 8.0 15.0 0.00 0.00 0.00 52 1008.8
20200408181504 59 41 9.0 15.0 0.00 0.00 0.00 53 1008.8
20200408181402 59 39 8.0 15.0 0.00 0.00 0.00 53 1008.8
20200408181305 59 37 5.0 15.0 0.00 0.00 0.00 53 1008.8
20200408181205 59 34 6.0 15.0 0.00 0.00 0.00 53 1008.8
20200408181104 59 32 4.0 15.0 0.00 0.00 0.00 53 1008.9
20200408181004 59 30 5.0 15.0 0.00 0.00 0.00 52 1008.9
20200408180904 59 28 6.0 15.0 0.00 0.00 0.00 52 1008.8
20200408180805 59 27 5.0 15.0 0.00 0.00 0.00 52 1008.9
20200408180705 59 24 8.0 15.0 0.00 0.00 0.00 52 1008.9
20200408180605 59 22 10.0 15.0 0.00 0.00 0.00 52 1008.9
20200408180505 60 22 5.0 12.0 0.00 0.00 0.00 52 1008.8
20200408180413 60 22 5.0 12.0 0.00 0.00 0.00 52 1008.9
20200408180306 60 22 5.0 12.0 0.00 0.00 0.00 52 1008.8
20200408180207 60 22 5.0 12.0 0.00 0.00 0.00 52 1008.9
20200408180106 60 22 5.0 12.0 0.00 0.00 0.00 52 1008.9
20200408180004 60 22 5.0 12.0 0.00 0.00 0.00 52 1008.9
20200408175904 60 21 4.0 12.0 0.00 0.00 0.00 53 1008.9
20200408175804 60 19 3.0 12.0 0.00 0.00 0.00 52 1008.8
20200408175705 60 17 3.0 12.0 0.00 0.00 0.00 52 1008.9
20200408175605 60 15 4.0 12.0 0.00 0.00 0.00 52 1008.8
20200408175505 60 12 5.0 14.0 0.00 0.00 0.00 52 1009.0
20200408175405 60 11 6.0 14.0 0.00 0.00 0.00 53 1009.1
20200408175304 60 9 8.0 14.0 0.00 0.00 0.00 53 1009.0
20200408175205 60 6 8.0 14.0 0.00 0.00 0.00 52 1009.1
20200408175104 60 4 6.0 14.0 0.00 0.00 0.00 53 1009.0
20200408175004 60 2 4.0 14.0 0.00 0.00 0.00 53 1009.1
20200408174904 59 1 4.0 14.0 0.00 0.00 0.00 53 1009.2
20200408174805 59 1 4.0 14.0 0.00 0.00 0.00 53 1009.1
20200408174705 59 1 6.0 14.0 0.00 0.00 0.00 53 1009.1
20200408174604 59 1 6.0 14.0 0.00 0.00 0.00 53 1009.1
20200408174504 60 1 10.0 14.0 0.00 0.00 0.00 53 1009.1
20200408174405 60 1 5.0 11.0 0.00 0.00 0.00 54 1009.1
20200408174304 59 1 4.0 11.0 0.00 0.00 0.00 55 1009.1
20200408174204 59 1 4.0 11.0 0.00 0.00 0.00 55 1009.1
20200408174104 59 1 3.0 11.0 0.00 0.00 0.00 55 1009.0
20200408174004 59 1 3.0 11.0 0.00 0.00 0.00 55 1009.0
20200408173904 59 1 3.0 11.0 0.00 0.00 0.00 55 1009.0
20200408173804 59 1 4.0 11.0 0.00 0.00 0.00 55 1009.1
20200408173704 59 1 6.0 11.0 0.00 0.00 0.00 55 1009.2
20200408173605 58 1 6.0 11.0 0.00 0.00 0.00 55 1009.1
20200408173505 58 1 8.0 11.0 0.00 0.00 0.00 54 1009.1
20200408173405 58 1 6.0 11.0 0.00 0.00 0.00 56 1009.2
20200408173305 58 1 4.0 11.0 0.00 0.00 0.00 56 1009.2
20200408173204 58 1 4.0 11.0 0.00 0.00 0.00 56 1009.1
20200408173105 58 1 3.0 11.0 0.00 0.00 0.00 56 1009.2
20200408173005 58 1 6.0 11.0 0.00 0.00 0.00 56 1009.2
20200408172904 58 1 4.0 11.0 0.00 0.00 0.00 56 1009.2
20200408172804 58 1 5.0 11.0 0.00 0.00 0.00 57 1009.2
20200408172704 58 1 4.0 11.0 0.00 0.00 0.00 57 1009.1
20200408172605 58 1 6.0 11.0 0.00 0.00 0.00 58 1009.1
20200408172505 58 1 4.0 11.0 0.00 0.00 0.00 58 1009.2
20200408172404 57 1 8.0 11.0 0.00 0.00 0.00 59 1009.2
20200408172304 57 1 1.0 11.0 0.00 0.00 0.00 59 1009.0
20200408172204 57 1 2.0 11.0 0.00 0.00 0.00 59 1009.2
20200408172104 56 1 5.0 11.0 0.00 0.00 0.00 59 1009.2
20200408172004 56 1 5.0 11.0 0.00 0.00 0.00 60 1009.1
20200408171905 56 1 4.0 8.0 0.00 0.00 0.00 61 1009.1
20200408171805 55 1 2.0 8.0 0.00 0.00 0.00 61 1009.1
20200408171704 55 1 2.0 8.0 0.00 0.00 0.00 61 1009.1
20200408171605 55 1 5.0 8.0 0.00 0.00 0.00 61 1009.1
20200408171504 55 1 3.0 8.0 0.00 0.00 0.00 61 1009.1
20200408171404 54 1 2.0 8.0 0.00 0.00 0.00 62 1009.1
20200408171304 54 1 3.0 8.0 0.00 0.00 0.00 61 1009.1
20200408171205 54 1 5.0 8.0 0.00 0.00 0.00 61 1009.1
20200408171105 54 1 3.0 8.0 0.00 0.00 0.00 61 1009.1
20200408171005 54 1 5.0 8.0 0.00 0.00 0.00 61 1009.2
20200408170905 54 1 5.0 8.0 0.00 0.00 0.00 61 1009.2
20200408170805 54 1 5.0 8.0 0.00 0.00 0.00 61 1009.3
20200408170705 53 1 4.0 7.0 0.00 0.00 0.00 63 1009.2
20200408170605 53 1 4.0 7.0 0.00 0.00 0.00 63 1009.2
20200408170505 53 1 4.0 8.0 0.00 0.00 0.00 63 1009.2
20200408170405 53 1 4.0 8.0 0.00 0.00 0.00 63 1009.2
20200408170305 53 1 4.0 8.0 0.00 0.00 0.00 63 1009.2
20200408170204 53 1 4.0 10.0 0.00 0.00 0.00 63 1009.2
20200408170105 53 1 4.0 10.0 0.00 0.00 0.00 63 1009.2
20200408170005 53 1 4.0 10.0 0.00 0.00 0.00 63 1009.1
20200408165905 53 1 4.0 10.0 0.00 0.00 0.00 63 1009.2
20200408165804 53 1 4.0 10.0 0.00 0.00 0.00 63 1009.2
20200408165704 53 1 4.0 10.0 0.00 0.00 0.00 63 1009.2
20200408165604 53 1 4.0 10.0 0.00 0.00 0.00 63 1009.1
20200408165504 53 1 4.0 10.0 0.00 0.00 0.00 63 1009.2
20200408165405 53 1 4.0 10.0 0.00 0.00 0.00 63 1009.2
20200408165305 53 1 4.0 10.0 0.00 0.00 0.00 63 1009.1
20200408165204 53 1 7.0 10.0 0.00 0.00 0.00 62 1009.2
20200408165105 53 1 5.0 10.0 0.00 0.00 0.00 63 1009.2
20200408165004 53 1 4.0 10.0 0.00 0.00 0.00 63 1009.2
20200408164904 53 1 7.0 10.0 0.00 0.00 0.00 63 1009.2
20200408164804 53 1 5.0 10.0 0.00 0.00 0.00 63 1009.2
20200408164704 53 1 6.0 10.0 0.00 0.00 0.00 62 1009.2
20200408164604 53 1 6.0 10.0 0.00 0.00 0.00 63 1009.2
20200408164505 54 1 6.0 10.0 0.00 0.00 0.00 63 1009.1
20200408164404 54 1 4.0 8.0 0.00 0.00 0.00 63 1009.1
20200408164305 54 1 4.0 8.0 0.00 0.00 0.00 63 1009.2
20200408164204 54 1 3.0 6.0 0.00 0.00 0.00 63 1009.2
20200408164105 54 1 3.0 6.0 0.00 0.00 0.00 63 1009.2
20200408164004 54 1 3.0 7.0 0.00 0.00 0.00 62 1009.2
20200408163904 54 1 2.0 10.0 0.00 0.00 0.00 63 1009.3
20200408163804 54 1 2.0 10.0 0.00 0.00 0.00 63 1009.1
20200408163705 54 1 3.0 10.0 0.00 0.00 0.00 62 1009.1
20200408163604 54 1 2.0 11.0 0.00 0.00 0.00 63 1009.1
20200408163504 54 1 4.0 11.0 0.00 0.00 0.00 62 1008.9
20200408163404 54 1 3.0 11.0 0.00 0.00 0.00 62 1009.1
20200408163304 54 1 3.0 11.0 0.00 0.00 0.00 62 1009.0
20200408163204 54 1 3.0 11.0 0.00 0.00 0.00 62 1009.0
20200408163104 54 1 4.0 11.0 0.00 0.00 0.00 63 1009.1
20200408163005 54 1 4.0 11.0 0.00 0.00 0.00 63 1009.0
20200408162904 54 1 2.0 11.0 0.00 0.00 0.00 64 1009.1
20200408162804 54 1 3.0 11.0 0.00 0.00 0.00 64 1009.1
20200408162705 54 1 6.0 11.0 0.00 0.00 0.00 64 1009.0
20200408162604 53 1 4.0 11.0 0.00 0.00 0.00 64 1008.9
20200408162504 53 1 7.0 11.0 0.00 0.00 0.00 64 1008.8
20200408162404 53 1 6.0 11.0 0.00 0.00 0.00 64 1008.9
20200408162304 53 1 4.0 11.0 0.00 0.00 0.00 64 1008.9
20200408162204 53 1 4.0 11.0 0.00 0.00 0.00 64 1009.0
20200408162104 53 1 4.0 11.0 0.00 0.00 0.00 64 1008.9
20200408162005 53 1 6.0 11.0 0.00 0.00 0.00 64 1009.0
20200408161905 52 1 5.0 11.0 0.00 0.00 0.00 65 1009.0
20200408161804 52 1 2.0 11.0 0.00 0.00 0.00 66 1009.0
20200408161704 52 1 5.0 11.0 0.00 0.00 0.00 65 1009.0
20200408161604 52 1 5.0 11.0 0.00 0.00 0.00 65 1009.1
20200408161504 52 1 6.0 11.0 0.00 0.00 0.00 66 1009.1
20200408161404 51 1 5.0 11.0 0.00 0.00 0.00 67 1009.0
20200408161304 51 1 5.0 11.0 0.00 0.00 0.00 67 1009.1
20200408161204 51 1 6.0 11.0 0.00 0.00 0.00 67 1009.0
20200408161104 51 1 6.0 11.0 0.00 0.00 0.00 67 1009.0
20200408161004 51 1 6.0 11.0 0.00 0.00 0.00 67 1008.9
20200408160904 51 1 7.0 11.0 0.00 0.00 0.00 67 1009.0
20200408160804 51 1 6.0 9.0 0.00 0.00 0.00 67 1009.0
20200408160704 50 1 4.0 9.0 0.00 0.00 0.00 68 1009.1
20200408160604 50 1 4.0 10.0 0.00 0.00 0.00 68 1009.1
20200408160504 50 1 4.0 10.0 0.00 0.00 0.00 68 1009.2
20200408160404 50 1 4.0 10.0 0.00 0.00 0.00 68 1009.2
20200408160305 50 1 4.0 10.0 0.00 0.00 0.00 68 1009.2
20200408160205 50 1 4.0 10.0 0.00 0.00 0.00 68 1009.0
20200408160105 50 1 4.0 10.0 0.00 0.00 0.00 68 1009.1
20200408160008 50 1 4.0 10.0 0.00 0.00 0.00 68 1009.2
20200408155904 50 1 6.0 10.0 0.00 0.00 0.00 68 1009.0
20200408155805 50 1 4.0 10.0 0.00 0.00 0.00 68 1009.0
20200408155704 50 1 4.0 10.0 0.00 0.00 0.00 68 1009.0
20200408155604 50 1 6.0 10.0 0.00 0.00 0.00 68 1009.0
20200408155505 50 1 4.0 10.0 0.00 0.00 0.00 69 1009.0
20200408155404 50 1 6.0 10.0 0.00 0.00 0.00 69 1009.0
20200408155305 50 1 4.0 10.0 0.00 0.00 0.00 69 1009.1
20200408155204 50 1 3.0 10.0 0.00 0.00 0.00 69 1009.0
20200408155104 50 1 5.0 11.0 0.00 0.00 0.00 69 1009.0
20200408155005 50 1 6.0 11.0 0.00 0.00 0.00 69 1009.0
20200408154904 49 1 5.0 11.0 0.00 0.00 0.00 69 1009.0
20200408154805 50 1 5.0 11.0 0.00 0.00 0.00 69 1008.9
20200408154704 49 1 4.0 11.0 0.00 0.00 0.00 69 1008.9
20200408154604 49 1 4.0 11.0 0.00 0.00 0.00 69 1008.8
20200408154504 49 1 4.0 11.0 0.00 0.00 0.00 69 1008.9
20200408154404 49 1 4.0 11.0 0.00 0.00 0.00 69 1009.0
20200408154304 49 1 5.0 11.0 0.00 0.00 0.00 68 1008.7
20200408154204 49 1 6.0 11.0 0.00 0.00 0.00 68 1008.8
20200408154105 50 1 8.0 11.0 0.00 0.00 0.00 68 1008.8
20200408154005 50 1 4.0 11.0 0.00 0.00 0.00 69 1008.7
20200408153905 50 1 4.0 11.0 0.00 0.00 0.00 69 1008.8
20200408153805 50 1 5.0 11.0 0.00 0.00 0.00 69 1008.8
20200408153705 50 1 5.0 11.0 0.00 0.00 0.00 69 1008.8
20200408153605 50 1 4.0 11.0 0.00 0.00 0.00 69 1008.8
20200408153504 50 1 7.0 11.0 0.00 0.00 0.00 69 1008.8
20200408153404 50 1 6.0 11.0 0.00 0.00 0.00 68 1008.9
20200408153304 50 1 6.0 11.0 0.00 0.00 0.00 69 1008.9
20200408153204 50 1 7.0 11.0 0.00 0.00 0.00 69 1008.9
20200408153104 50 1 8.0 11.0 0.00 0.00 0.00 68 1008.9
20200408153004 50 1 4.0 9.0 0.00 0.00 0.00 69 1009.0
20200408152904 50 1 6.0 9.0 0.00 0.00 0.00 69 1008.9
20200408152804 50 1 6.0 9.0 0.00 0.00 0.00 69 1009.0
20200408152704 50 1 5.0 9.0 0.00 0.00 0.00 69 1009.0
20200408152604 50 1 6.0 9.0 0.00 0.00 0.00 69 1009.0
20200408152505 50 1 5.0 9.0 0.00 0.00 0.00 69 1009.0
20200408152405 50 4 6.0 8.0 0.00 0.00 0.00 69 1009.0
20200408152305 48 11 3.0 8.0 0.00 0.00 0.00 73 1009.2
20200408152205 48 14 3.0 8.0 0.00 0.00 0.00 73 1009.2
20200408152105 48 19 3.0 8.0 0.00 0.00 0.00 73 1009.2
20200408152004 48 23 3.0 8.0 0.00 0.00 0.00 73 1009.2
20200408151904 48 29 3.0 8.0 0.00 0.00 0.00 73 1009.2
20200408151804 48 32 3.0 8.0 0.00 0.00 0.00 73 1009.2
20200408151704 48 37 3.0 8.0 0.00 0.00 0.00 73 1009.2
20200408151604 48 41 3.0 9.0 0.00 0.00 0.00 73 1009.2
20200408151504 48 45 4.0 9.0 0.00 0.00 0.00 73 1009.2
20200408151404 48 46 4.0 9.0 0.00 0.00 0.00 73 1009.0
20200408151304 48 45 4.0 9.0 0.00 0.00 0.00 73 1009.3
20200408151204 47 46 4.0 9.0 0.00 0.00 0.00 73 1009.1
20200408151104 47 45 4.0 9.0 0.00 0.00 0.00 73 1009.1
20200408151004 47 46 4.0 9.0 0.00 0.00 0.00 74 1009.1
20200408150904 47 45 4.0 9.0 0.00 0.00 0.00 74 1009.0
20200408150804 47 45 4.0 9.0 0.00 0.00 0.00 74 1009.1
20200408150704 47 45 4.0 9.0 0.00 0.00 0.00 74 1009.1
20200408150605 47 45 4.0 9.0 0.00 0.00 0.00 74 1009.0
20200408150505 47 45 4.0 9.0 0.00 0.00 0.00 74 1009.0
20200408150405 47 45 3.0 9.0 0.00 0.00 0.00 76 1008.9
20200408150305 47 45 3.0 9.0 0.00 0.00 0.00 76 1009.1
20200408150205 47 45 3.0 9.0 0.00 0.00 0.00 76 1009.0
20200408150105 47 45 3.0 9.0 0.00 0.00 0.00 76 1009.0
20200408150005 47 45 3.0 9.0 0.00 0.00 0.00 76 1009.0
20200408145905 47 45 7.0 9.0 0.00 0.00 0.00 76 1009.0
20200408145804 46 45 4.0 8.0 0.00 0.00 0.00 77 1009.0
20200408145705 46 45 6.0 8.0 0.00 0.00 0.00 78 1008.9
20200408145604 46 45 3.0 8.0 0.00 0.00 0.00 79 1009.0
20200408145504 46 45 3.0 7.0 0.00 0.00 0.00 81 1009.1
20200408145405 46 45 4.0 7.0 0.00 0.00 0.00 82 1009.0
20200408145305 45 45 4.0 6.0 0.00 0.00 0.00 82 1009.0
20200408145205 45 45 3.0 6.0 0.00 0.00 0.00 83 1009.0
20200408145105 44 45 4.0 6.0 0.00 0.00 0.00 85 1009.0
20200408145005 44 45 3.0 6.0 0.00 0.00 0.00 85 1009.0
20200408144905 44 45 2.0 5.0 0.00 0.00 0.00 86 1008.9
20200408144804 43 45 3.0 5.0 0.00 0.00 0.00 86 1009.0
20200408144704 43 45 4.0 5.0 0.00 0.00 0.00 87 1008.9
20200408144604 42 45 3.0 4.0 0.00 0.00 0.00 88 1009.0
20200408144504 42 45 3.0 4.0 0.00 0.00 0.00 88 1008.9
20200408144404 42 46 3.0 4.0 0.00 0.00 0.00 88 1009.0
20200408144304 42 45 2.0 4.0 0.00 0.00 0.00 88 1009.0
20200408144204 41 45 2.0 3.0 0.00 0.00 0.00 88 1009.0
20200408144102 41 45 1.0 3.0 0.00 0.00 0.00 88 1009.1
20200408144004 41 45 1.0 4.0 0.00 0.00 0.00 88 1009.0
20200408143904 41 45 1.0 4.0 0.00 0.00 0.00 88 1008.9
20200408143806 41 45 2.0 4.0 0.00 0.00 0.00 88 1008.9
20200408143704 40 45 1.0 4.0 0.00 0.00 0.00 88 1008.8
20200408143606 40 45 1.0 4.0 0.00 0.00 0.00 88 1008.9
20200408143504 40 45 2.0 4.0 0.00 0.00 0.00 88 1008.9
20200408143404 40 45 2.0 4.0 0.00 0.00 0.00 88 1009.0
20200408143318 40 45 1.0 4.0 0.00 0.00 0.00 88 1008.8
20200408143230 40 46 2.0 4.0 0.00 0.00 0.00 88 1008.9
20200408143113 40 45 2.0 4.0 0.00 0.00 0.00 88 1008.8
20200408143004 40 45 2.0 3.0 0.00 0.00 0.00 88 1008.8
20200408142904 39 45 2.0 3.0 0.00 0.00 0.00 88 1008.9
20200408142804 39 45 1.0 3.0 0.00 0.00 0.00 88 1008.8
20200408142704 39 45 2.0 3.0 0.00 0.00 0.00 88 1008.8
20200408142604 39 45 2.0 3.0 0.00 0.00 0.00 87 1008.7
20200408142504 39 45 2.0 3.0 0.00 0.00 0.00 87 1008.8
20200408142404 39 45 1.0 3.0 0.00 0.00 0.00 87 1008.7
20200408142304 39 45 2.0 4.0 0.00 0.00 0.00 87 1008.8
20200408142204 39 45 1.0 4.0 0.00 0.00 0.00 87 1008.8
20200408142104 39 45 2.0 4.0 0.00 0.00 0.00 87 1008.7
20200408142004 39 45 1.0 4.0 0.00 0.00 0.00 87 1008.8
20200408141904 39 45 1.0 4.0 0.00 0.00 0.00 87 1008.8
20200408141805 39 45 1.0 4.0 0.00 0.00 0.00 87 1008.8
20200408141705 39 48 1.0 4.0 0.00 0.00 0.00 87 1008.8
20200408141604 39 51 1.0 4.0 0.00 0.00 0.00 88 1008.7
20200408141505 39 55 1.0 4.0 0.00 0.00 0.00 88 1008.8
20200408141405 39 58 2.0 4.0 0.00 0.00 0.00 88 1008.8
20200408141304 39 62 2.0 4.0 0.00 0.00 0.00 88 1008.7
20200408141204 39 66 2.0 4.0 0.00 0.00 0.00 88 1008.7
20200408141105 39 73 2.0 4.0 0.00 0.00 0.00 87 1008.7
20200408141004 39 78 2.0 3.0 0.00 0.00 0.00 87 1008.6
20200408140904 39 84 2.0 3.0 0.00 0.00 0.00 87 1008.6
20200408140805 39 90 1.0 2.0 0.00 0.00 0.00 87 1008.7
20200408140704 39 90 1.0 2.0 0.00 0.00 0.00 86 1008.8
20200408140604 39 90 1.0 2.0 0.00 0.00 0.00 86 1008.7
20200408140504 39 90 1.0 2.0 0.00 0.00 0.00 86 1008.7
20200408140404 39 90 1.0 2.0 0.00 0.00 0.00 86 1008.7
20200408140304 39 90 1.0 2.0 0.00 0.00 0.00 86 1008.6
20200408140204 39 90 1.0 2.0 0.00 0.00 0.00 86 1008.7
20200408140104 39 90 1.0 2.0 0.00 0.00 0.00 86 1008.7
20200408140005 39 90 1.0 2.0 0.00 0.00 0.00 86 1008.8
20200408135904 39 90 1.0 2.0 0.00 0.00 0.00 86 1008.7
20200408135804 39 90 1.0 2.0 0.00 0.00 0.00 86 1008.7
20200408135704 39 90 1.0 2.0 0.00 0.00 0.00 86 1008.7
20200408135604 39 0 0.0 2.0 0.00 0.00 0.00 86 1008.6
20200408135504 39 90 1.0 3.0 0.00 0.00 0.00 86 1008.8
20200408135404 39 0 0.0 3.0 0.00 0.00 0.00 86 1008.7
20200408135305 39 0 0.0 3.0 0.00 0.00 0.00 85 1008.6
20200408135205 39 0 0.0 3.0 0.00 0.00 0.00 86 1008.7
20200408135105 39 90 1.0 4.0 0.00 0.00 0.00 85 1008.6
20200408135005 39 0 0.0 4.0 0.00 0.00 0.00 86 1008.6
20200408134905 39 0 0.0 4.0 0.00 0.00 0.00 86 1008.5
20200408134804 39 0 0.0 4.0 0.00 0.00 0.00 85 1008.6
20200408134705 39 90 1.0 4.0 0.00 0.00 0.00 86 1008.5
20200408134605 39 90 2.0 4.0 0.00 0.00 0.00 86 1008.4
20200408134505 39 90 2.0 4.0 0.00 0.00 0.00 86 1008.4
20200408134405 39 90 2.0 4.0 0.00 0.00 0.00 86 1008.4
20200408134305 40 90 2.0 4.0 0.00 0.00 0.00 86 1008.4
20200408134205 40 90 2.0 4.0 0.00 0.00 0.00 86 1008.4
20200408134105 40 90 2.0 4.0 0.00 0.00 0.00 86 1008.4
20200408134005 40 90 2.0 4.0 0.00 0.00 0.00 86 1008.4
20200408133904 40 90 2.0 4.0 0.00 0.00 0.00 86 1008.4
20200408133804 40 90 2.0 4.0 0.00 0.00 0.00 86 1008.5
20200408133704 40 90 2.0 4.0 0.00 0.00 0.00 86 1008.5
20200408133605 40 90 2.0 4.0 0.00 0.00 0.00 86 1008.5
20200408133504 40 90 2.0 4.0 0.00 0.00 0.00 86 1008.4
20200408133404 40 90 2.0 4.0 0.00 0.00 0.00 86 1008.3
20200408133304 40 90 2.0 4.0 0.00 0.00 0.00 86 1008.5
20200408133204 40 90 2.0 4.0 0.00 0.00 0.00 86 1008.4
20200408133005 40 90 2.0 4.0 0.00 0.00 0.00 86 1008.4
20200408132904 40 90 2.0 4.0 0.00 0.00 0.00 86 1008.3
20200408132804 40 0 0.0 4.0 0.00 0.00 0.00 86 1008.4
20200408132704 40 90 1.0 4.0 0.00 0.00 0.00 86 1008.3
20200408132604 40 90 2.0 4.0 0.00 0.00 0.00 86 1008.4
20200408132504 40 90 1.0 4.0 0.00 0.00 0.00 86 1008.3
20200408132404 40 90 2.0 4.0 0.00 0.00 0.00 86 1008.3
20200408132304 40 90 2.0 4.0 0.00 0.00 0.00 87 1008.3
20200408132204 40 90 2.0 5.0 0.00 0.00 0.00 87 1008.4
20200408132104 40 90 2.0 5.0 0.00 0.00 0.00 87 1008.3
20200408132004 40 90 2.0 5.0 0.00 0.00 0.00 87 1008.4
20200408131904 40 90 2.0 5.0 0.00 0.00 0.00 87 1008.3
20200408131805 40 90 2.0 5.0 0.00 0.00 0.00 87 1008.3
20200408131704 40 90 2.0 5.0 0.00 0.00 0.00 87 1008.3
20200408131605 40 90 2.0 5.0 0.00 0.00 0.00 87 1008.3
20200408131505 39 90 3.0 5.0 0.00 0.00 0.00 87 1008.2
20200408131405 39 90 3.0 5.0 0.00 0.00 0.00 87 1008.2
20200408131305 39 90 2.0 5.0 0.00 0.00 0.00 87 1008.3
20200408131205 39 90 3.0 5.0 0.00 0.00 0.00 87 1008.2
20200408131104 39 90 2.0 4.0 0.00 0.00 0.00 87 1008.2
20200408131005 39 90 2.0 4.0 0.00 0.00 0.00 87 1008.3
20200408130904 39 90 2.0 4.0 0.00 0.00 0.00 88 1008.3
20200408130804 39 90 2.0 4.0 0.00 0.00 0.00 88 1008.4
20200408130704 39 90 2.0 4.0 0.00 0.00 0.00 88 1008.3
20200408130604 39 90 2.0 5.0 0.00 0.00 0.00 89 1008.5
20200408130504 39 90 2.0 5.0 0.00 0.00 0.00 89 1008.3
20200408130405 39 90 2.0 5.0 0.00 0.00 0.00 89 1008.3
20200408130305 39 90 2.0 5.0 0.00 0.00 0.00 89 1008.3
20200408130208 39 90 2.0 5.0 0.00 0.00 0.00 90 1008.2
20200408130106 39 90 2.0 5.0 0.00 0.00 0.00 90 1008.2
20200408130005 39 90 2.0 5.0 0.00 0.00 0.00 90 1008.3
20200408125904 39 90 2.0 5.0 0.00 0.00 0.00 91 1008.3
20200408125804 38 90 2.0 5.0 0.00 0.00 0.00 91 1008.3
20200408125705 38 90 2.0 5.0 0.00 0.00 0.00 91 1008.3
20200408125604 38 90 2.0 5.0 0.00 0.00 0.00 92 1008.3
20200408125504 38 90 3.0 4.0 0.00 0.00 0.00 92 1008.3
20200408125405 37 90 2.0 4.0 0.00 0.00 0.00 92 1008.3
20200408125305 37 90 2.0 4.0 0.00 0.00 0.00 92 1008.2
20200408125205 37 90 2.0 4.0 0.00 0.00 0.00 92 1008.2
20200408125105 36 90 2.0 4.0 0.00 0.00 0.00 92 1008.3
20200408125005 36 90 3.0 4.0 0.00 0.00 0.00 91 1008.2
20200408124904 36 90 2.0 3.0 0.00 0.00 0.00 91 1008.2
20200408124805 36 90 2.0 3.0 0.00 0.00 0.00 91 1008.3
20200408124704 35 90 2.0 3.0 0.00 0.00 0.00 91 1008.3
20200408124604 35 90 1.0 3.0 0.00 0.00 0.00 91 1008.2
20200408124504 35 90 1.0 3.0 0.00 0.00 0.00 91 1008.2
20200408124404 35 90 2.0 3.0 0.00 0.00 0.00 90 1008.2
20200408124304 35 90 2.0 3.0 0.00 0.00 0.00 90 1008.3
20200408124204 35 90 2.0 3.0 0.00 0.00 0.00 90 1008.3
20200408124104 35 90 1.0 2.0 0.00 0.00 0.00 90 1008.3
20200408124005 35 90 2.0 2.0 0.00 0.00 0.00 90 1008.3
20200408123904 35 90 2.0 3.0 0.00 0.00 0.00 90 1008.4
20200408123804 35 90 2.0 3.0 0.00 0.00 0.00 91 1008.3
20200408123704 35 90 2.0 3.0 0.00 0.00 0.00 91 1008.3
20200408123604 35 90 2.0 3.0 0.00 0.00 0.00 91 1008.3
20200408123504 35 90 1.0 3.0 0.00 0.00 0.00 91 1008.3
20200408123405 35 90 1.0 4.0 0.00 0.00 0.00 91 1008.3
20200408123304 35 90 1.0 4.0 0.00 0.00 0.00 91 1008.3
20200408123205 35 90 1.0 4.0 0.00 0.00 0.00 91 1008.3
20200408123104 35 90 1.0 4.0 0.00 0.00 0.00 91 1008.2
20200408123005 35 90 2.0 4.0 0.00 0.00 0.00 91 1008.2
20200408122904 35 90 2.0 4.0 0.00 0.00 0.00 91 1008.1
20200408122804 35 90 2.0 4.0 0.00 0.00 0.00 91 1008.2
20200408122704 34 90 2.0 4.0 0.00 0.00 0.00 91 1008.2
20200408122604 34 90 2.0 4.0 0.00 0.00 0.00 91 1008.2
20200408122505 34 90 2.0 4.0 0.00 0.00 0.00 91 1008.2
20200408122405 34 90 2.0 4.0 0.00 0.00 0.00 90 1008.2
20200408122305 34 90 1.0 4.0 0.00 0.00 0.00 90 1008.2
20200408122205 34 90 2.0 4.0 0.00 0.00 0.00 89 1008.3
20200408122105 34 90 2.0 4.0 0.00 0.00 0.00 89 1008.3
20200408122005 34 90 2.0 4.0 0.00 0.00 0.00 88 1008.1
20200408121904 34 90 2.0 3.0 0.00 0.00 0.00 88 1008.2
20200408121804 34 90 2.0 3.0 0.00 0.00 0.00 88 1008.2
20200408121704 34 90 2.0 3.0 0.00 0.00 0.00 88 1007.9
20200408121604 34 90 2.0 3.0 0.00 0.00 0.00 88 1008.1
20200408121504 34 90 2.0 3.0 0.00 0.00 0.00 88 1008.1
20200408121404 35 90 2.0 3.0 0.00 0.00 0.00 88 1008.2
20200408121304 35 90 2.0 2.0 0.00 0.00 0.00 88 1008.2
20200408121205 35 90 2.0 2.0 0.00 0.00 0.00 88 1008.2
20200408121105 35 90 1.0 2.0 0.00 0.00 0.00 88 1008.3
20200408121005 35 90 1.0 2.0 0.00 0.00 0.00 88 1008.1
20200408120905 35 0 0.0 2.0 0.00 0.00 0.00 88 1008.1
20200408120805 35 90 1.0 2.0 0.00 0.00 0.00 89 1008.2
20200408120705 35 90 1.0 2.0 0.00 0.00 0.00 89 1008.1
20200408120605 35 90 1.0 2.0 0.00 0.00 0.00 89 1008.2
20200408120505 35 90 1.0 2.0 0.00 0.00 0.00 89 1008.2
20200408120404 35 90 1.0 2.0 0.00 0.00 0.00 89 1008.2
20200408120304 35 90 1.0 2.0 0.00 0.00 0.00 89 1008.2
20200408120204 35 90 1.0 2.0 0.00 0.00 0.00 89 1008.2
20200408120106 35 90 1.0 2.0 0.00 0.00 0.00 89 1008.3
20200408120004 35 90 1.0 2.0 0.00 0.00 0.00 89 1008.3
20200408115904 35 90 1.0 3.0 0.00 0.00 0.00 89 1008.2
20200408115804 35 90 1.0 3.0 0.00 0.00 0.00 89 1008.1
20200408115704 35 90 1.0 3.0 0.00 0.00 0.00 89 1008.2
20200408115604 35 90 1.0 3.0 0.00 0.00 0.00 89 1008.1
20200408115504 35 90 1.0 3.0 0.00 0.00 0.00 89 1008.2
20200408115404 35 90 1.0 3.0 0.00 0.00 0.00 89 1008.1
20200408115306 35 90 1.0 3.0 0.00 0.00 0.00 89 1008.1
20200408115205 35 90 1.0 3.0 0.00 0.00 0.00 89 1008.1
20200408115105 35 90 1.0 3.0 0.00 0.00 0.00 90 1008.1
20200408115005 35 90 2.0 3.0 0.00 0.00 0.00 90 1008.1
20200408114905 35 90 2.0 3.0 0.00 0.00 0.00 90 1008.2
20200408114804 35 90 2.0 3.0 0.00 0.00 0.00 90 1008.1
20200408114704 35 90 2.0 3.0 0.00 0.00 0.00 90 1008.2
20200408114604 35 90 2.0 4.0 0.00 0.00 0.00 90 1008.1
20200408114505 35 90 2.0 4.0 0.00 0.00 0.00 90 1008.1
20200408114405 34 90 2.0 4.0 0.00 0.00 0.00 90 1008.2
20200408114305 34 90 1.0 4.0 0.00 0.00 0.00 90 1008.1
20200408114205 34 90 2.0 4.0 0.00 0.00 0.00 90 1008.1
20200408114105 34 90 2.0 4.0 0.00 0.00 0.00 90 1008.1
20200408114004 34 90 2.0 4.0 0.00 0.00 0.00 90 1008.1
20200408113904 34 90 2.0 4.0 0.00 0.00 0.00 90 1008.1
20200408113804 34 90 2.0 4.0 0.00 0.00 0.00 90 1008.2
20200408113705 34 90 2.0 4.0 0.00 0.00 0.00 90 1008.0
20200408113604 33 90 2.0 4.0 0.00 0.00 0.00 90 1008.1
20200408113504 33 90 2.0 3.0 0.00 0.00 0.00 89 1008.1
20200408113404 33 90 2.0 3.0 0.00 0.00 0.00 89 1008.3
20200408113305 33 90 2.0 3.0 0.00 0.00 0.00 89 1008.1
20200408113205 33 90 2.0 3.0 0.00 0.00 0.00 89 1008.2
20200408113105 33 90 2.0 3.0 0.00 0.00 0.00 89 1008.3
20200408113005 33 90 2.0 3.0 0.00 0.00 0.00 89 1008.3
20200408112904 33 90 2.0 3.0 0.00 0.00 0.00 88 1008.2
20200408112804 33 90 1.0 3.0 0.00 0.00 0.00 88 1008.2
20200408112704 33 90 2.0 4.0 0.00 0.00 0.00 88 1008.1
20200408112604 33 90 2.0 4.0 0.00 0.00 0.00 88 1008.1
20200408112504 32 90 2.0 4.0 0.00 0.00 0.00 88 1008.2
20200408112404 32 90 1.0 4.0 0.00 0.00 0.00 87 1008.1
20200408112306 33 0 0.0 4.0 0.00 0.00 0.00 87 1008.1
20200408112205 33 0 0.0 4.0 0.00 0.00 0.00 87 1008.2
20200408112105 32 90 1.0 4.0 0.00 0.00 0.00 88 1008.1
20200408112005 32 90 2.0 4.0 0.00 0.00 0.00 87 1008.1
20200408111905 32 90 2.0 4.0 0.00 0.00 0.00 87 1008.0
20200408111804 32 90 2.0 4.0 0.00 0.00 0.00 87 1008.1
20200408111705 32 90 2.0 4.0 0.00 0.00 0.00 87 1008.1
20200408111605 32 90 2.0 3.0 0.00 0.00 0.00 86 1008.1
20200408111505 32 90 2.0 3.0 0.00 0.00 0.00 86 1008.1
20200408111405 32 90 2.0 3.0 0.00 0.00 0.00 86 1008.0
20200408111304 32 90 2.0 2.0 0.00 0.00 0.00 85 1007.9
20200408111204 32 90 2.0 2.0 0.00 0.00 0.00 85 1008.1
20200408111104 32 90 2.0 2.0 0.00 0.00 0.00 85 1008.2
20200408111004 32 90 1.0 2.0 0.00 0.00 0.00 85 1008.1
20200408110904 32 90 2.0 2.0 0.00 0.00 0.00 85 1008.2
20200408110804 32 90 1.0 2.0 0.00 0.00 0.00 84 1008.1
20200408110704 33 0 0.0 0.0 0.00 0.00 0.00 83 1008.2
20200408110605 33 0 0.0 0.0 0.00 0.00 0.00 83 1008.2
20200408110505 33 0 0.0 0.0 0.00 0.00 0.00 83 1008.1
20200408110405 33 0 0.0 0.0 0.00 0.00 0.00 83 1008.2
20200408110310 33 0 0.0 0.0 0.00 0.00 0.00 83 1008.2
20200408110205 33 0 0.0 0.0 0.00 0.00 0.00 83 1008.2
20200408110105 33 0 0.0 0.0 0.00 0.00 0.00 83 1008.3
20200408105904 33 0 0.0 0.0 0.00 0.00 0.00 84 1008.2
20200408105805 33 0 0.0 0.0 0.00 0.00 0.00 83 1008.2
20200408105704 33 0 0.0 0.0 0.00 0.00 0.00 83 1008.3
20200408105604 33 0 0.0 0.0 0.00 0.00 0.00 83 1008.2
20200408105504 33 0 0.0 0.0 0.00 0.00 0.00 83 1008.2
20200408105404 33 0 0.0 0.0 0.00 0.00 0.00 83 1008.3
20200408105305 33 0 0.0 0.0 0.00 0.00 0.00 84 1008.3
20200408105204 33 0 0.0 1.0 0.00 0.00 0.00 84 1008.2
20200408105104 33 0 0.0 2.0 0.00 0.00 0.00 84 1008.2
20200408105004 33 0 0.0 2.0 0.00 0.00 0.00 84 1008.2
20200408104905 33 0 0.0 2.0 0.00 0.00 0.00 84 1008.2
20200408104804 33 0 0.0 2.0 0.00 0.00 0.00 84 1008.3
20200408104704 33 0 0.0 2.0 0.00 0.00 0.00 84 1008.3
20200408104604 34 0 0.0 3.0 0.00 0.00 0.00 84 1008.2
20200408104504 34 0 0.0 3.0 0.00 0.00 0.00 84 1008.1
20200408104405 34 0 0.0 3.0 0.00 0.00 0.00 85 1008.2
20200408104305 33 0 0.0 3.0 0.00 0.00 0.00 85 1008.2
20200408104205 33 90 2.0 3.0 0.00 0.00 0.00 85 1008.4
20200408104108 33 90 1.0 3.0 0.00 0.00 0.00 85 1008.2
20200408104004 33 90 2.0 3.0 0.00 0.00 0.00 85 1008.2
20200408103904 33 90 1.0 3.0 0.00 0.00 0.00 85 1008.3
20200408103804 33 90 1.0 3.0 0.00 0.00 0.00 85 1008.3
20200408103706 33 90 1.0 3.0 0.00 0.00 0.00 85 1008.4
20200408103604 33 90 2.0 3.0 0.00 0.00 0.00 85 1008.3
20200408103505 33 90 1.0 2.0 0.00 0.00 0.00 85 1008.3
20200408103404 33 90 1.0 2.0 0.00 0.00 0.00 85 1008.3
20200408103304 33 0 0.0 3.0 0.00 0.00 0.00 85 1008.3
20200408103204 33 0 0.0 3.0 0.00 0.00 0.00 85 1008.3
20200408103104 32 0 0.0 3.0 0.00 0.00 0.00 84 1008.3
20200408103005 33 0 0.0 3.0 0.00 0.00 0.00 84 1008.3
20200408102905 32 0 0.0 3.0 0.00 0.00 0.00 84 1008.3
20200408102805 32 0 0.0 3.0 0.00 0.00 0.00 84 1008.3
20200408102705 32 0 0.0 3.0 0.00 0.00 0.00 84 1008.2
20200408102604 32 90 1.0 3.0 0.00 0.00 0.00 83 1008.2
20200408102505 32 90 2.0 3.0 0.00 0.00 0.00 83 1008.2
20200408102404 32 90 2.0 3.0 0.00 0.00 0.00 83 1008.3
20200408102306 32 90 2.0 2.0 0.00 0.00 0.00 82 1008.3
20200408102204 32 90 2.0 2.0 0.00 0.00 0.00 82 1008.3
20200408102104 32 90 1.0 2.0 0.00 0.00 0.00 82 1008.2
20200408102004 32 90 1.0 2.0 0.00 0.00 0.00 81 1008.4
20200408101904 32 90 2.0 2.0 0.00 0.00 0.00 81 1008.3
20200408101804 32 90 2.0 2.0 0.00 0.00 0.00 80 1008.3
20200408101704 32 90 1.0 2.0 0.00 0.00 0.00 80 1008.4
20200408101604 32 90 1.0 2.0 0.00 0.00 0.00 80 1008.3
20200408101504 32 90 1.0 2.0 0.00 0.00 0.00 80 1008.4
20200408101405 32 90 1.0 2.0 0.00 0.00 0.00 80 1008.4
20200408101305 32 90 1.0 2.0 0.00 0.00 0.00 80 1008.4
20200408101205 32 90 1.0 2.0 0.00 0.00 0.00 80 1008.3
20200408101105 33 0 0.0 2.0 0.00 0.00 0.00 80 1008.3
20200408101006 33 0 0.0 2.0 0.00 0.00 0.00 80 1008.3
20200408100904 33 0 0.0 2.0 0.00 0.00 0.00 80 1008.4
20200408100804 33 90 1.0 2.0 0.00 0.00 0.00 80 1008.5
20200408100704 33 0 0.0 2.0 0.00 0.00 0.00 79 1008.5
20200408100604 33 0 0.0 2.0 0.00 0.00 0.00 79 1008.4
20200408100505 33 0 0.0 2.0 0.00 0.00 0.00 79 1008.5
20200408100404 33 0 0.0 2.0 0.00 0.00 0.00 79 1008.5
20200408100304 33 0 0.0 2.0 0.00 0.00 0.00 79 1008.5
20200408100207 33 0 0.0 2.0 0.00 0.00 0.00 79 1008.5
20200408100104 33 0 0.0 2.0 0.00 0.00 0.00 79 1008.6
20200408100005 33 0 0.0 2.0 0.00 0.00 0.00 79 1008.6
20200408095905 33 0 0.0 2.0 0.00 0.00 0.00 79 1008.5
20200408095805 33 0 0.0 2.0 0.00 0.00 0.00 79 1008.6
20200408095705 33 90 1.0 2.0 0.00 0.00 0.00 79 1008.6
20200408095605 33 90 1.0 2.0 0.00 0.00 0.00 79 1008.6
20200408095504 34 90 2.0 2.0 0.00 0.00 0.00 79 1008.7
20200408095404 34 90 2.0 2.0 0.00 0.00 0.00 79 1008.6
20200408095305 34 0 0.0 2.0 0.00 0.00 0.00 79 1008.7
20200408095205 34 0 0.0 0.0 0.00 0.00 0.00 79 1008.6
20200408095104 34 0 0.0 0.0 0.00 0.00 0.00 79 1008.6
20200408095004 34 0 0.0 0.0 0.00 0.00 0.00 79 1008.7
20200408094904 34 0 0.0 0.0 0.00 0.00 0.00 79 1008.6
20200408094805 34 0 0.0 0.0 0.00 0.00 0.00 79 1008.7
20200408094705 34 0 0.0 0.0 0.00 0.00 0.00 79 1008.8
20200408094605 34 0 0.0 0.0 0.00 0.00 0.00 79 1008.6
20200408094505 34 0 0.0 0.0 0.00 0.00 0.00 79 1008.7
20200408094405 34 0 0.0 0.0 0.00 0.00 0.00 79 1008.7
20200408094305 34 0 0.0 0.0 0.00 0.00 0.00 79 1008.8
20200408094204 34 0 0.0 0.0 0.00 0.00 0.00 79 1008.8
20200408094104 34 0 0.0 0.0 0.00 0.00 0.00 79 1008.8
20200408094004 35 0 0.0 1.0 0.00 0.00 0.00 79 1008.8
20200408093904 35 0 0.0 2.0 0.00 0.00 0.00 79 1008.9
20200408093805 35 0 0.0 2.0 0.00 0.00 0.00 80 1008.8
20200408093707 35 0 0.0 2.0 0.00 0.00 0.00 80 1008.9
20200408093606 35 0 0.0 2.0 0.00 0.00 0.00 80 1008.8
20200408093506 35 0 0.0 2.0 0.00 0.00 0.00 80 1008.9
20200408093406 35 0 0.0 2.0 0.00 0.00 0.00 80 1008.8
20200408093304 34 0 0.0 2.0 0.00 0.00 0.00 80 1008.8
20200408093209 34 0 0.0 3.0 0.00 0.00 0.00 81 1008.8
20200408093105 34 0 0.0 3.0 0.00 0.00 0.00 81 1008.8
20200408093006 34 0 0.0 3.0 0.00 0.00 0.00 81 1008.9
20200408092905 34 0 0.0 3.0 0.00 0.00 0.00 82 1009.0
20200408092804 34 90 1.0 3.0 0.00 0.00 0.00 82 1008.9
20200408092704 33 90 1.0 3.0 0.00 0.00 0.00 82 1008.9
20200408092605 33 90 2.0 3.0 0.00 0.00 0.00 82 1008.8
20200408092504 33 90 2.0 3.0 0.00 0.00 0.00 81 1008.9
20200408092404 33 90 2.0 3.0 0.00 0.00 0.00 81 1008.9
20200408092306 33 90 2.0 3.0 0.00 0.00 0.00 81 1008.8
20200408092204 32 90 2.0 3.0 0.00 0.00 0.00 81 1008.8
20200408092106 32 90 2.0 3.0 0.00 0.00 0.00 81 1008.9
20200408092004 32 90 1.0 2.0 0.00 0.00 0.00 81 1008.9
20200408091904 32 0 0.0 2.0 0.00 0.00 0.00 80 1008.9
20200408091405 32 0 0.0 2.0 0.00 0.00 0.00 80 1008.9
20200408091304 33 0 0.0 2.0 0.00 0.00 0.00 80 1008.9
20200408091206 32 0 0.0 2.0 0.00 0.00 0.00 80 1008.9
20200408091104 32 0 0.0 2.0 0.00 0.00 0.00 80 1008.9
20200408091006 33 0 0.0 2.0 0.00 0.00 0.00 80 1008.9
20200408090904 33 0 0.0 2.0 0.00 0.00 0.00 80 1008.9
20200408090804 33 0 0.0 2.0 0.00 0.00 0.00 80 1008.9
20200408090704 33 0 0.0 2.0 0.00 0.00 0.00 80 1008.9
20200408090604 33 0 0.0 2.0 0.00 0.00 0.00 80 1008.9
20200408090504 33 0 0.0 2.0 0.00 0.00 0.00 80 1008.9
20200408090404 33 0 0.0 2.0 0.00 0.00 0.00 80 1009.0
20200408090305 33 0 0.0 2.0 0.00 0.00 0.00 80 1008.9
20200408090204 33 0 0.0 2.0 0.00 0.00 0.00 80 1009.0
20200408090104 33 0 0.0 2.0 0.00 0.00 0.00 80 1009.1
20200408090005 33 0 0.0 2.0 0.00 0.00 0.00 80 1009.1
20200408085905 33 0 0.0 2.0 0.00 0.00 0.00 80 1009.2
20200408085805 33 90 1.0 2.0 0.00 0.00 0.00 80 1009.0
20200408085705 33 90 1.0 2.0 0.00 0.00 0.00 80 1009.1
20200408085605 33 90 1.0 2.0 0.00 0.00 0.00 80 1009.1
20200408085505 33 90 1.0 3.0 0.00 0.00 0.00 80 1009.0
20200408085404 33 90 2.0 3.0 0.00 0.00 0.00 79 1009.1
20200408085306 33 90 1.0 3.0 0.00 0.00 0.00 79 1009.1
20200408085204 33 90 1.0 3.0 0.00 0.00 0.00 79 1009.1
20200408085105 33 90 1.0 3.0 0.00 0.00 0.00 79 1009.1
20200408085005 33 90 1.0 3.0 0.00 0.00 0.00 79 1009.0
20200408084905 33 90 1.0 3.0 0.00 0.00 0.00 79 1009.0
20200408084805 33 90 1.0 3.0 0.00 0.00 0.00 79 1009.1
20200408084705 33 90 1.0 3.0 0.00 0.00 0.00 78 1009.2
20200408084605 33 90 2.0 3.0 0.00 0.00 0.00 78 1009.1
20200408084505 33 90 2.0 3.0 0.00 0.00 0.00 78 1009.2
20200408084405 33 90 2.0 3.0 0.00 0.00 0.00 78 1009.2
20200408084305 33 90 2.0 3.0 0.00 0.00 0.00 77 1009.3
20200408084205 33 90 2.0 3.0 0.00 0.00 0.00 77 1009.3
20200408084105 33 90 2.0 3.0 0.00 0.00 0.00 77 1009.4
20200408084004 33 90 1.0 3.0 0.00 0.00 0.00 77 1009.2
20200408083904 33 90 1.0 3.0 0.00 0.00 0.00 77 1009.4
20200408083804 34 90 2.0 3.0 0.00 0.00 0.00 76 1009.4
20200408083704 34 90 1.0 3.0 0.00 0.00 0.00 76 1009.4
20200408083604 34 90 2.0 3.0 0.00 0.00 0.00 76 1009.4
20200408083504 34 90 2.0 2.0 0.00 0.00 0.00 76 1009.4
20200408083404 34 90 2.0 2.0 0.00 0.00 0.00 76 1009.3
20200408083304 34 90 1.0 4.0 0.00 0.00 0.00 76 1009.3
20200408083204 34 0 0.0 4.0 0.00 0.00 0.00 76 1009.3
20200408083105 35 0 0.0 4.0 0.00 0.00 0.00 75 1009.3
20200408083005 35 0 0.0 4.0 0.00 0.00 0.00 75 1009.3
20200408082905 35 0 0.0 4.0 0.00 0.00 0.00 75 1009.3
20200408082805 35 90 1.0 4.0 0.00 0.00 0.00 75 1009.2
20200408082704 35 90 1.0 4.0 0.00 0.00 0.00 75 1009.1
20200408082604 35 90 1.0 4.0 0.00 0.00 0.00 75 1009.3
20200408082505 35 90 1.0 4.0 0.00 0.00 0.00 75 1009.3
20200408082404 35 90 2.0 4.0 0.00 0.00 0.00 75 1009.3
20200408082306 36 90 2.0 4.0 0.00 0.00 0.00 75 1009.4
20200408082204 36 90 2.0 4.0 0.00 0.00 0.00 75 1009.3
20200408082104 36 90 2.0 4.0 0.00 0.00 0.00 76 1009.4
20200408082004 36 90 2.0 4.0 0.00 0.00 0.00 76 1009.3
20200408081905 36 90 3.0 4.0 0.00 0.00 0.00 76 1009.2
20200408081805 36 90 2.0 3.0 0.00 0.00 0.00 76 1009.2
20200408081704 36 90 2.0 2.0 0.00 0.00 0.00 76 1009.2
20200408081505 36 0 0.0 2.0 0.00 0.00 0.00 75 1009.2
20200408081404 36 0 0.0 2.0 0.00 0.00 0.00 75 1009.2
20200408081304 36 0 0.0 2.0 0.00 0.00 0.00 75 1009.1
20200408081204 36 0 0.0 2.0 0.00 0.00 0.00 75 1009.2
20200408081105 36 90 1.0 2.0 0.00 0.00 0.00 75 1009.2
20200408081005 36 90 1.0 2.0 0.00 0.00 0.00 75 1009.2
20200408080905 36 90 1.0 2.0 0.00 0.00 0.00 75 1009.2
20200408080805 37 90 1.0 2.0 0.00 0.00 0.00 75 1009.2
20200408080704 37 90 2.0 2.0 0.00 0.00 0.00 75 1009.2
20200408080605 37 90 2.0 2.0 0.00 0.00 0.00 75 1009.2
20200408080504 37 90 2.0 2.0 0.00 0.00 0.00 75 1009.2
20200408080404 37 90 2.0 2.0 0.00 0.00 0.00 75 1009.3
20200408080304 37 90 2.0 3.0 0.00 0.00 0.00 75 1009.3
20200408080204 37 90 2.0 3.0 0.00 0.00 0.00 75 1009.3
20200408080105 37 90 2.0 3.0 0.00 0.00 0.00 75 1009.3
20200408080005 37 90 2.0 3.0 0.00 0.00 0.00 75 1009.4
20200408075905 37 90 2.0 3.0 0.00 0.00 0.00 75 1009.2
20200408075805 37 90 2.0 3.0 0.00 0.00 0.00 75 1009.3
20200408075705 37 90 1.0 3.0 0.00 0.00 0.00 75 1009.3
20200408075605 37 90 1.0 3.0 0.00 0.00 0.00 74 1009.3
20200408075505 37 90 2.0 3.0 0.00 0.00 0.00 74 1009.4
20200408075404 37 90 2.0 3.0 0.00 0.00 0.00 74 1009.4
20200408075306 37 90 2.0 3.0 0.00 0.00 0.00 74 1009.4
20200408075204 37 90 2.0 3.0 0.00 0.00 0.00 74 1009.3
20200408075104 37 90 2.0 3.0 0.00 0.00 0.00 73 1009.3
20200408075004 37 90 2.0 3.0 0.00 0.00 0.00 73 1009.3
20200408074904 37 90 2.0 3.0 0.00 0.00 0.00 73 1009.3
20200408074804 37 90 2.0 2.0 0.00 0.00 0.00 73 1009.3
20200408074705 37 90 1.0 2.0 0.00 0.00 0.00 73 1009.4
20200408074605 37 0 0.0 2.0 0.00 0.00 0.00 73 1009.4
20200408074505 37 0 0.0 2.0 0.00 0.00 0.00 73 1009.3
20200408074405 37 0 0.0 2.0 0.00 0.00 0.00 73 1009.4
20200408074305 37 0 0.0 2.0 0.00 0.00 0.00 73 1009.4
20200408074204 37 0 0.0 2.0 0.00 0.00 0.00 73 1009.4
20200408074104 37 0 0.0 2.0 0.00 0.00 0.00 73 1009.4
20200408074005 37 90 1.0 2.0 0.00 0.00 0.00 74 1009.3
20200408073904 37 90 1.0 2.0 0.00 0.00 0.00 74 1009.4
20200408073804 36 90 2.0 2.0 0.00 0.00 0.00 74 1009.3
20200408073704 36 90 2.0 2.0 0.00 0.00 0.00 74 1009.4
20200408073605 36 90 2.0 2.0 0.00 0.00 0.00 74 1009.3
20200408073505 36 0 0.0 2.0 0.00 0.00 0.00 74 1009.4
20200408073405 36 0 0.0 2.0 0.00 0.00 0.00 74 1009.3
20200408073305 36 0 0.0 2.0 0.00 0.00 0.00 74 1009.5
20200408073205 36 0 0.0 2.0 0.00 0.00 0.00 74 1009.4
20200408073105 36 0 0.0 2.0 0.00 0.00 0.00 74 1009.3
20200408073005 36 0 0.0 2.0 0.00 0.00 0.00 73 1009.4
20200408072905 36 0 0.0 2.0 0.00 0.00 0.00 73 1009.5
20200408072804 36 0 0.0 2.0 0.00 0.00 0.00 73 1009.4
20200408072704 36 0 0.0 2.0 0.00 0.00 0.00 73 1009.5
20200408072604 36 0 0.0 2.0 0.00 0.00 0.00 73 1009.4
20200408072505 36 0 0.0 2.0 0.00 0.00 0.00 73 1009.4
20200408072404 36 0 0.0 2.0 0.00 0.00 0.00 72 1009.4
20200408072306 36 90 1.0 2.0 0.00 0.00 0.00 72 1009.5
20200408072205 36 90 1.0 2.0 0.00 0.00 0.00 72 1009.5
20200408072105 36 0 0.0 2.0 0.00 0.00 0.00 72 1009.5
20200408072005 36 0 0.0 2.0 0.00 0.00 0.00 72 1009.6
20200408071905 36 0 0.0 2.0 0.00 0.00 0.00 73 1009.5
20200408071805 36 0 0.0 2.0 0.00 0.00 0.00 72 1009.4
20200408071705 36 0 0.0 2.0 0.00 0.00 0.00 72 1009.5
20200408071605 36 90 1.0 2.0 0.00 0.00 0.00 72 1009.5
20200408071507 36 90 1.0 2.0 0.00 0.00 0.00 72 1009.5
20200408071406 36 0 0.0 2.0 0.00 0.00 0.00 72 1009.6
20200408071304 36 0 0.0 2.0 0.00 0.00 0.00 72 1009.6
20200408071206 36 0 0.0 2.0 0.00 0.00 0.00 72 1009.7
20200408071104 36 0 0.0 2.0 0.00 0.00 0.00 72 1009.5
20200408071004 36 0 0.0 2.0 0.00 0.00 0.00 72 1009.6
20200408070904 36 90 1.0 2.0 0.00 0.00 0.00 72 1009.6
20200408070805 36 90 1.0 3.0 0.00 0.00 0.00 72 1009.7
20200408070705 37 0 0.0 3.0 0.00 0.00 0.00 71 1009.5
20200408070605 37 0 0.0 3.0 0.00 0.00 0.00 71 1009.6
20200408070504 37 0 0.0 3.0 0.00 0.00 0.00 71 1009.5
20200408070404 37 0 0.0 3.0 0.00 0.00 0.00 71 1009.6
20200408070304 37 0 0.0 3.0 0.00 0.00 0.00 71 1009.6
20200408070205 37 0 0.0 3.0 0.00 0.00 0.00 71 1009.6
20200408070105 37 0 0.0 3.0 0.00 0.00 0.00 71 1009.6
20200408070011 37 0 0.0 3.0 0.00 0.00 0.00 71 1009.7
20200408065904 37 90 2.0 3.0 0.00 0.00 0.00 71 1009.7
20200408065804 37 0 0.0 2.0 0.00 0.00 0.00 71 1009.8
20200408065705 37 0 0.0 2.0 0.00 0.00 0.00 71 1009.8
20200408065605 37 0 0.0 2.0 0.00 0.00 0.00 71 1009.7
20200408065505 36 90 1.0 2.0 0.00 0.00 0.00 71 1009.7
20200408065405 36 0 0.0 2.0 0.00 0.00 0.00 71 1009.8
20200408065305 36 0 0.0 2.0 0.00 0.00 0.00 71 1009.7
20200408065205 36 0 0.0 2.0 0.00 0.00 0.00 71 1009.7
20200408065105 36 0 0.0 2.0 0.00 0.00 0.00 71 1009.7
20200408065004 36 0 0.0 2.0 0.00 0.00 0.00 71 1009.7
20200408064904 36 0 0.0 2.0 0.00 0.00 0.00 71 1009.6
20200408064807 36 0 0.0 3.0 0.00 0.00 0.00 71 1009.7
20200408064733 37 0 0.0 3.0 0.00 0.00 0.00 71 1009.8
20200408064605 37 0 0.0 3.0 0.00 0.00 0.00 71 1009.6
20200408064504 37 0 0.0 3.0 0.00 0.00 0.00 71 1009.7
20200408064404 37 90 1.0 3.0 0.00 0.00 0.00 71 1009.6
20200408064304 36 0 0.0 3.0 0.00 0.00 0.00 71 1009.8
20200408064204 36 0 0.0 3.0 0.00 0.00 0.00 71 1009.6
20200408064104 36 0 0.0 3.0 0.00 0.00 0.00 71 1009.6
20200408064005 36 90 1.0 3.0 0.00 0.00 0.00 71 1009.7
20200408063905 36 90 2.0 3.0 0.00 0.00 0.00 71 1009.7
20200408063804 36 90 1.0 3.0 0.00 0.00 0.00 71 1009.7
20200408063704 36 0 0.0 3.0 0.00 0.00 0.00 71 1009.7
20200408063604 36 90 1.0 3.0 0.00 0.00 0.00 71 1009.8
20200408063504 36 90 1.0 3.0 0.00 0.00 0.00 71 1009.7
20200408063404 36 0 0.0 3.0 0.00 0.00 0.00 71 1009.8
20200408063304 36 90 2.0 3.0 0.00 0.00 0.00 71 1009.8
20200408063204 36 90 1.0 3.0 0.00 0.00 0.00 71 1009.8
20200408063104 36 90 2.0 3.0 0.00 0.00 0.00 71 1009.8
20200408063004 36 90 1.0 2.0 0.00 0.00 0.00 71 1009.7
20200408062905 36 0 0.0 2.0 0.00 0.00 0.00 71 1009.7
20200408062805 36 0 0.0 2.0 0.00 0.00 0.00 71 1009.8
20200408062705 36 90 1.0 2.0 0.00 0.00 0.00 71 1009.8
20200408062605 36 0 0.0 2.0 0.00 0.00 0.00 71 1009.8
20200408062505 36 0 0.0 2.0 0.00 0.00 0.00 71 1009.7
20200408062406 36 0 0.0 2.0 0.00 0.00 0.00 71 1009.7
20200408062304 36 90 1.0 2.0 0.00 0.00 0.00 71 1009.7
20200408062205 36 90 1.0 2.0 0.00 0.00 0.00 70 1009.8
20200408062105 36 90 2.0 2.0 0.00 0.00 0.00 70 1009.8
20200408062004 36 0 0.0 2.0 0.00 0.00 0.00 70 1009.8
20200408061904 36 0 0.0 2.0 0.00 0.00 0.00 70 1009.8
20200408061804 36 0 0.0 2.0 0.00 0.00 0.00 70 1009.8
20200408061704 36 90 1.0 2.0 0.00 0.00 0.00 70 1009.8
20200408061604 36 90 1.0 2.0 0.00 0.00 0.00 70 1009.9
20200408061504 36 90 1.0 2.0 0.00 0.00 0.00 70 1009.8
20200408061404 36 0 0.0 2.0 0.00 0.00 0.00 70 1009.8
20200408061304 36 90 1.0 2.0 0.00 0.00 0.00 70 1009.8
20200408061204 36 0 0.0 2.0 0.00 0.00 0.00 70 1009.8
20200408061104 36 0 0.0 2.0 0.00 0.00 0.00 70 1009.8
20200408061005 36 90 1.0 2.0 0.00 0.00 0.00 70 1009.8
20200408060904 36 0 0.0 2.0 0.00 0.00 0.00 70 1009.8
20200408060804 36 0 0.0 0.0 0.00 0.00 0.00 70 1009.8
20200408060705 36 0 0.0 2.0 0.00 0.00 0.00 70 1009.9
20200408060605 36 0 0.0 3.0 0.00 0.00 0.00 70 1009.9
20200408060505 36 0 0.0 3.0 0.00 0.00 0.00 70 1009.8
20200408060405 36 0 0.0 3.0 0.00 0.00 0.00 70 1009.9
20200408060304 36 0 0.0 3.0 0.00 0.00 0.00 70 1009.8
20200408060205 36 0 0.0 3.0 0.00 0.00 0.00 70 1009.8
20200408060105 36 0 0.0 3.0 0.00 0.00 0.00 70 1010.0
20200408060004 36 0 0.0 3.0 0.00 0.00 0.00 70 1009.9
20200408055904 36 0 0.0 3.0 0.00 0.00 0.00 70 1009.9
20200408055805 36 0 0.0 3.0 0.00 0.00 0.00 70 1009.8
20200408055705 35 0 0.0 3.0 0.00 0.00 0.00 70 1009.9
20200408055605 36 90 2.0 3.0 0.00 0.00 0.00 70 1010.0
20200408055505 35 0 0.0 2.0 0.00 0.00 0.00 70 1010.0
20200408055405 35 90 1.0 2.0 0.00 0.00 0.00 70 1009.8
20200408055304 35 0 0.0 2.0 0.00 0.00 0.00 70 1009.8
20200408055204 35 0 0.0 2.0 0.00 0.00 0.00 70 1009.9
20200408055104 35 0 0.0 2.0 0.00 0.00 0.00 70 1009.8
20200408055005 35 0 0.0 2.0 0.00 0.00 0.00 70 1010.0
20200408054905 35 90 1.0 2.0 0.00 0.00 0.00 70 1010.0
20200408054803 35 90 1.0 2.0 0.00 0.00 0.00 70 1009.8
20200408054704 35 90 1.0 2.0 0.00 0.00 0.00 70 1009.9
20200408054602 35 90 1.0 2.0 0.00 0.00 0.00 70 1010.0
20200408054504 34 90 1.0 2.0 0.00 0.00 0.00 70 1010.0
20200408054404 34 90 1.0 2.0 0.00 0.00 0.00 70 1010.0
20200408054304 34 90 1.0 2.0 0.00 0.00 0.00 69 1010.0
20200408054205 34 90 1.0 2.0 0.00 0.00 0.00 69 1010.0
20200408054105 34 90 1.0 2.0 0.00 0.00 0.00 69 1010.0
20200408054006 34 90 1.0 2.0 0.00 0.00 0.00 69 1010.0
20200408053905 34 0 0.0 2.0 0.00 0.00 0.00 69 1010.1
20200408053805 34 0 0.0 2.0 0.00 0.00 0.00 69 1010.0
20200408053705 34 0 0.0 2.0 0.00 0.00 0.00 69 1010.1
20200408053605 34 0 0.0 2.0 0.00 0.00 0.00 69 1010.1
20200408053505 34 0 0.0 2.0 0.00 0.00 0.00 69 1010.0
20200408053405 34 90 1.0 2.0 0.00 0.00 0.00 69 1010.0
20200408053305 34 0 0.0 2.0 0.00 0.00 0.00 69 1009.8
20200408053205 34 0 0.0 2.0 0.00 0.00 0.00 68 1009.8
20200408053105 34 0 0.0 2.0 0.00 0.00 0.00 68 1009.6
20200408053011 34 90 1.0 2.0 0.00 0.00 0.00 68 1009.8
20200408052905 33 90 2.0 2.0 0.00 0.00 0.00 68 1009.6
20200408052805 33 90 2.0 2.0 0.00 0.00 0.00 68 1009.8
20200408052704 33 90 2.0 2.0 0.00 0.00 0.00 67 1009.7
20200408052604 33 0 0.0 2.0 0.00 0.00 0.00 66 1009.7
20200408052504 33 0 0.0 2.0 0.00 0.00 0.00 66 1009.8
20200408052404 33 0 0.0 2.0 0.00 0.00 0.00 66 1010.1
20200408052305 34 0 0.0 2.0 0.00 0.00 0.00 66 1009.8
20200408052205 34 90 1.0 2.0 0.00 0.00 0.00 65 1009.8
20200408052105 34 0 0.0 2.0 0.00 0.00 0.00 65 1009.8
20200408052005 34 0 0.0 2.0 0.00 0.00 0.00 65 1009.8
20200408051905 34 0 0.0 0.0 0.00 0.00 0.00 65 1009.8
20200408051805 34 0 0.0 0.0 0.00 0.00 0.00 65 1009.7
20200408051705 34 0 0.0 0.0 0.00 0.00 0.00 65 1009.7
20200408051607 34 0 0.0 0.0 0.00 0.00 0.00 65 1009.7
20200408051505 35 0 0.0 0.0 0.00 0.00 0.00 65 1009.7
20200408051404 35 0 0.0 0.0 0.00 0.00 0.00 65 1009.7
20200408051304 35 0 0.0 0.0 0.00 0.00 0.00 64 1009.6
20200408051204 35 0 0.0 0.0 0.00 0.00 0.00 65 1009.6
20200408051104 35 0 0.0 0.0 0.00 0.00 0.00 64 1009.6
20200408051004 35 0 0.0 0.0 0.00 0.00 0.00 64 1009.6
20200408050904 35 0 0.0 0.0 0.00 0.00 0.00 64 1009.7
20200408050804 35 0 0.0 2.0 0.00 0.00 0.00 64 1009.6
20200408050705 36 0 0.0 2.0 0.00 0.00 0.00 63 1009.6
20200408050605 36 0 0.0 2.0 0.00 0.00 0.00 63 1009.7
20200408050505 36 0 0.0 2.0 0.00 0.00 0.00 63 1009.7
20200408050405 36 0 0.0 2.0 0.00 0.00 0.00 63 1009.7
20200408050305 36 0 0.0 2.0 0.00 0.00 0.00 63 1009.7
20200408050205 36 0 0.0 2.0 0.00 0.00 0.00 63 1009.6
20200408050104 36 0 0.0 2.0 0.00 0.00 0.00 63 1009.6
20200408050005 36 0 0.0 2.0 0.00 0.00 0.00 63 1009.7
20200408045904 36 0 0.0 2.0 0.00 0.00 0.00 63 1009.6
20200408045804 36 90 1.0 2.0 0.00 0.00 0.00 63 1009.6
20200408045704 36 90 1.0 3.0 0.00 0.00 0.00 62 1009.6
20200408045604 36 0 0.0 3.0 0.00 0.00 0.00 62 1009.6
20200408045504 36 0 0.0 3.0 0.00 0.00 0.00 62 1009.6
20200408045405 36 0 0.0 3.0 0.00 0.00 0.00 62 1009.6
20200408045305 36 0 0.0 3.0 0.00 0.00 0.00 62 1009.6
20200408045205 37 0 0.0 3.0 0.00 0.00 0.00 62 1009.6
20200408045105 37 90 2.0 3.0 0.00 0.00 0.00 61 1009.6
20200408045005 37 90 1.0 3.0 0.00 0.00 0.00 61 1009.5
20200408044905 37 90 1.0 3.0 0.00 0.00 0.00 61 1009.6
20200408044805 37 90 2.0 3.0 0.00 0.00 0.00 61 1009.6
20200408044704 38 90 2.0 3.0 0.00 0.00 0.00 61 1009.6
20200408044604 38 90 2.0 3.0 0.00 0.00 0.00 61 1009.6
20200408044505 37 90 2.0 2.0 0.00 0.00 0.00 61 1009.6
20200408044405 38 90 2.0 2.0 0.00 0.00 0.00 62 1009.6
20200408044305 38 90 1.0 2.0 0.00 0.00 0.00 62 1009.5
20200408044205 38 90 1.0 2.0 0.00 0.00 0.00 61 1009.4
20200408044105 38 0 0.0 2.0 0.00 0.00 0.00 61 1009.5
20200408044005 38 0 0.0 2.0 0.00 0.00 0.00 61 1009.4
20200408043905 38 0 0.0 2.0 0.00 0.00 0.00 61 1009.4
20200408043804 38 0 0.0 2.0 0.00 0.00 0.00 61 1009.4
20200408043704 38 0 0.0 2.0 0.00 0.00 0.00 61 1009.3
20200408043604 38 0 0.0 2.0 0.00 0.00 0.00 61 1009.3
20200408043505 38 90 1.0 2.0 0.00 0.00 0.00 61 1009.2
20200408043404 38 0 0.0 2.0 0.00 0.00 0.00 61 1009.3
20200408043304 38 0 0.0 2.0 0.00 0.00 0.00 61 1009.2
20200408043205 38 90 1.0 2.0 0.00 0.00 0.00 61 1009.2
20200408043105 38 90 2.0 2.0 0.00 0.00 0.00 61 1009.2
20200408043005 38 90 2.0 2.0 0.00 0.00 0.00 61 1009.2
20200408042905 38 90 2.0 2.0 0.00 0.00 0.00 61 1009.2
20200408042805 38 90 1.0 2.0 0.00 0.00 0.00 61 1009.2
20200408042704 38 90 2.0 3.0 0.00 0.00 0.00 61 1009.3
20200408042605 38 90 1.0 4.0 0.00 0.00 0.00 61 1009.3
20200408042504 38 90 1.0 4.0 0.00 0.00 0.00 61 1009.2
20200408042404 38 90 1.0 4.0 0.00 0.00 0.00 62 1009.3
20200408042305 38 90 1.0 4.0 0.00 0.00 0.00 62 1009.2
20200408042204 37 90 1.0 4.0 0.00 0.00 0.00 62 1009.2
20200408042104 37 90 1.0 4.0 0.00 0.00 0.00 62 1009.3
20200408042006 37 90 1.0 4.0 0.00 0.00 0.00 62 1009.3
20200408041905 37 90 1.0 4.0 0.00 0.00 0.00 63 1009.3
20200408041805 37 90 2.0 4.0 0.00 0.00 0.00 63 1009.3
20200408041705 37 90 2.0 4.0 0.00 0.00 0.00 64 1009.3
20200408041605 36 90 2.0 4.0 0.00 0.00 0.00 64 1009.3
20200408041505 36 90 2.0 4.0 0.00 0.00 0.00 64 1009.3
20200408041405 36 90 2.0 4.0 0.00 0.00 0.00 64 1009.2
20200408041305 36 90 2.0 4.0 0.00 0.00 0.00 64 1009.3
20200408041204 36 90 2.0 3.0 0.00 0.00 0.00 62 1009.3
20200408041104 36 90 2.0 3.0 0.00 0.00 0.00 62 1009.3
20200408041006 36 90 2.0 3.0 0.00 0.00 0.00 62 1009.2
20200408040905 36 90 2.0 3.0 0.00 0.00 0.00 62 1009.3
20200408040805 36 90 2.0 3.0 0.00 0.00 0.00 61 1009.2
20200408040705 37 90 1.0 2.0 0.00 0.00 0.00 59 1009.2
20200408040605 37 90 1.0 2.0 0.00 0.00 0.00 59 1009.2
20200408040505 37 90 1.0 2.0 0.00 0.00 0.00 59 1009.2
20200408040404 37 90 1.0 2.0 0.00 0.00 0.00 59 1009.2
20200408040305 37 90 1.0 2.0 0.00 0.00 0.00 59 1009.1
20200408040204 37 90 1.0 2.0 0.00 0.00 0.00 59 1009.2
20200408040104 37 90 1.0 2.0 0.00 0.00 0.00 59 1009.1
20200408040004 37 90 1.0 2.0 0.00 0.00 0.00 59 1009.2
20200408035904 37 90 1.0 2.0 0.00 0.00 0.00 59 1009.1
20200408035805 37 90 1.0 2.0 0.00 0.00 0.00 59 1009.1
20200408035705 37 90 1.0 2.0 0.00 0.00 0.00 59 1009.1
20200408035605 37 90 1.0 2.0 0.00 0.00 0.00 59 1009.0
20200408035505 38 90 1.0 2.0 0.00 0.00 0.00 59 1009.0
20200408035404 38 90 1.0 2.0 0.00 0.00 0.00 58 1009.0
20200408035305 38 90 1.0 2.0 0.00 0.00 0.00 58 1009.0
20200408035204 37 90 1.0 2.0 0.00 0.00 0.00 58 1008.9
20200408035104 38 0 0.0 2.0 0.00 0.00 0.00 58 1009.0
20200408035005 38 0 0.0 2.0 0.00 0.00 0.00 58 1008.9
20200408034904 38 0 0.0 2.0 0.00 0.00 0.00 58 1009.0
20200408034805 38 0 0.0 2.0 0.00 0.00 0.00 58 1009.0
20200408034705 38 90 1.0 2.0 0.00 0.00 0.00 57 1008.8
20200408034605 38 0 0.0 2.0 0.00 0.00 0.00 57 1008.8
20200408034504 38 0 0.0 2.0 0.00 0.00 0.00 57 1008.8
20200408034405 39 0 0.0 3.0 0.00 0.00 0.00 57 1008.8
20200408034304 39 0 0.0 3.0 0.00 0.00 0.00 57 1008.8
20200408034205 39 0 0.0 3.0 0.00 0.00 0.00 57 1008.8
20200408034104 39 0 0.0 3.0 0.00 0.00 0.00 57 1008.7
20200408034004 39 0 0.0 3.0 0.00 0.00 0.00 57 1008.7
20200408033905 39 90 1.0 3.0 0.00 0.00 0.00 57 1008.7
20200408033805 39 90 1.0 3.0 0.00 0.00 0.00 57 1008.7
20200408033705 39 90 1.0 3.0 0.00 0.00 0.00 57 1008.7
20200408033604 39 90 2.0 3.0 0.00 0.00 0.00 57 1008.8
20200408033504 39 90 2.0 3.0 0.00 0.00 0.00 57 1008.8
20200408033405 39 90 2.0 3.0 0.00 0.00 0.00 57 1008.6
20200408033304 39 90 2.0 3.0 0.00 0.00 0.00 57 1008.7
20200408033204 39 90 2.0 3.0 0.00 0.00 0.00 57 1008.6
20200408033104 39 90 2.0 3.0 0.00 0.00 0.00 56 1008.6
20200408033006 39 90 2.0 3.0 0.00 0.00 0.00 56 1008.5
20200408032905 39 90 2.0 3.0 0.00 0.00 0.00 56 1008.5
20200408032805 39 90 2.0 3.0 0.00 0.00 0.00 56 1008.5
20200408032705 39 90 2.0 3.0 0.00 0.00 0.00 56 1008.5
20200408032605 40 90 2.0 3.0 0.00 0.00 0.00 55 1008.4
20200408032505 40 90 2.0 3.0 0.00 0.00 0.00 55 1008.5
20200408032405 40 90 2.0 3.0 0.00 0.00 0.00 55 1008.3
20200408032305 40 90 2.0 3.0 0.00 0.00 0.00 55 1008.3
20200408032205 40 90 2.0 3.0 0.00 0.00 0.00 55 1008.3
20200408032105 40 90 1.0 3.0 0.00 0.00 0.00 55 1008.4
20200408032004 40 90 2.0 3.0 0.00 0.00 0.00 55 1008.3
20200408031904 40 90 1.0 3.0 0.00 0.00 0.00 54 1008.3
20200408031804 40 90 1.0 3.0 0.00 0.00 0.00 54 1008.3
20200408031705 40 90 1.0 3.0 0.00 0.00 0.00 54 1008.5
20200408031604 40 90 2.0 3.0 0.00 0.00 0.00 54 1008.4
20200408031504 41 90 2.0 3.0 0.00 0.00 0.00 53 1008.4
20200408031404 41 90 2.0 3.0 0.00 0.00 0.00 53 1008.6
20200408031304 41 90 2.0 3.0 0.00 0.00 0.00 53 1008.5
20200408031205 41 90 2.0 3.0 0.00 0.00 0.00 53 1008.5
20200408031105 41 90 2.0 3.0 0.00 0.00 0.00 52 1008.6
20200408031005 42 90 2.0 2.0 0.00 0.00 0.00 52 1008.4
20200408030905 42 90 2.0 2.0 0.00 0.00 0.00 52 1008.5
20200408030805 42 90 2.0 2.0 0.00 0.00 0.00 52 1008.5
20200408030706 44 0 0.0 2.0 0.00 0.00 0.00 50 1008.4
20200408030605 44 0 0.0 2.0 0.00 0.00 0.00 50 1008.4
20200408030504 44 0 0.0 2.0 0.00 0.00 0.00 50 1008.4
20200408030404 44 0 0.0 2.0 0.00 0.00 0.00 50 1008.4
20200408030304 44 0 0.0 2.0 0.00 0.00 0.00 50 1008.4
20200408030204 44 0 0.0 2.0 0.00 0.00 0.00 50 1008.4
20200408030104 44 0 0.0 2.0 0.00 0.00 0.00 50 1008.4
20200408030006 44 0 0.0 2.0 0.00 0.00 0.00 50 1008.3
20200408025905 44 0 0.0 2.0 0.00 0.00 0.00 50 1008.4
20200408025805 45 90 1.0 2.0 0.00 0.00 0.00 50 1008.4
20200408025705 45 90 1.0 2.0 0.00 0.00 0.00 49 1008.4
20200408025605 45 90 1.0 2.0 0.00 0.00 0.00 49 1008.3
20200408025506 45 90 2.0 2.0 0.00 0.00 0.00 49 1008.4
20200408025405 46 90 1.0 2.0 0.00 0.00 0.00 49 1008.4
20200408025305 46 90 1.0 2.0 0.00 0.00 0.00 49 1008.3
20200408025205 46 90 2.0 2.0 0.00 0.00 0.00 49 1008.4
20200408025105 46 90 2.0 2.0 0.00 0.00 0.00 49 1008.5
20200408025005 46 90 1.0 2.0 0.00 0.00 0.00 49 1008.4
20200408024905 47 90 1.0 2.0 0.00 0.00 0.00 49 1008.5
20200408024805 47 90 1.0 2.0 0.00 0.00 0.00 48 1008.5
20200408024705 47 90 1.0 3.0 0.00 0.00 0.00 48 1008.4
20200408024605 47 90 1.0 3.0 0.00 0.00 0.00 48 1008.4
20200408024504 47 90 1.0 3.0 0.00 0.00 0.00 48 1008.4
20200408024405 47 0 0.0 3.0 0.00 0.00 0.00 48 1008.4
20200408024304 48 90 1.0 3.0 0.00 0.00 0.00 48 1008.4
20200408024205 48 90 1.0 4.0 0.00 0.00 0.00 48 1008.4
20200408024104 48 90 1.0 4.0 0.00 0.00 0.00 48 1008.3
20200408024005 48 90 1.0 4.0 0.00 0.00 0.00 48 1008.4
20200408023905 48 90 1.0 4.0 0.00 0.00 0.00 48 1008.3
20200408023805 48 90 1.0 4.0 0.00 0.00 0.00 48 1008.3
20200408023705 48 90 2.0 4.0 0.00 0.00 0.00 47 1008.3
20200408023604 49 90 2.0 4.0 0.00 0.00 0.00 47 1008.3
20200408023505 49 90 2.0 4.0 0.00 0.00 0.00 47 1008.2
20200408023404 49 90 2.0 4.0 0.00 0.00 0.00 47 1008.2
20200408023304 49 90 2.0 4.0 0.00 0.00 0.00 47 1008.2
20200408023204 49 90 2.0 4.0 0.00 0.00 0.00 47 1008.1
20200408023104 49 90 1.0 4.0 0.00 0.00 0.00 46 1008.2
20200408023004 49 90 2.0 4.0 0.00 0.00 0.00 46 1008.2
20200408022904 49 90 1.0 4.0 0.00 0.00 0.00 46 1008.2
20200408022804 50 90 2.0 4.0 0.00 0.00 0.00 46 1008.1
20200408022705 50 90 2.0 4.0 0.00 0.00 0.00 46 1008.3
20200408022604 50 90 2.0 4.0 0.00 0.00 0.00 46 1008.3
20200408022509 50 90 2.0 4.0 0.00 0.00 0.00 46 1008.2
20200408022405 50 90 2.0 4.0 0.00 0.00 0.00 46 1008.1
20200408022305 51 90 2.0 4.0 0.00 0.00 0.00 46 1008.3
20200408022205 51 90 2.0 4.0 0.00 0.00 0.00 45 1008.2
20200408022105 51 90 2.0 4.0 0.00 0.00 0.00 46 1008.2
20200408022005 51 90 2.0 4.0 0.00 0.00 0.00 45 1008.2
20200408021905 51 90 2.0 4.0 0.00 0.00 0.00 45 1008.2
20200408021804 51 90 2.0 6.0 0.00 0.00 0.00 45 1008.2
20200408021704 51 90 2.0 6.0 0.00 0.00 0.00 45 1008.2
20200408021605 51 90 2.0 6.0 0.00 0.00 0.00 45 1008.2
20200408021504 51 90 2.0 6.0 0.00 0.00 0.00 45 1008.2
20200408021404 51 90 2.0 6.0 0.00 0.00 0.00 45 1008.2
20200408021304 52 90 2.0 6.0 0.00 0.00 0.00 45 1008.2
20200408021204 52 90 2.0 6.0 0.00 0.00 0.00 44 1008.2
20200408021104 52 90 2.0 6.0 0.00 0.00 0.00 44 1008.2
20200408021004 52 90 2.0 6.0 0.00 0.00 0.00 44 1008.1
20200408020904 52 90 4.0 6.0 0.00 0.00 0.00 44 1008.2
20200408020804 52 90 4.0 7.0 0.00 0.00 0.00 44 1008.2
20200408020704 53 90 2.0 7.0 0.00 0.00 0.00 43 1008.2
20200408020604 53 90 2.0 10.0 0.00 0.00 0.00 43 1008.3
20200408020504 53 90 2.0 10.0 0.00 0.00 0.00 43 1008.3
20200408020404 53 90 2.0 10.0 0.00 0.00 0.00 43 1008.3
20200408020305 53 90 2.0 10.0 0.00 0.00 0.00 43 1008.2
20200408020204 53 90 2.0 10.0 0.00 0.00 0.00 43 1008.2
20200408020104 53 90 2.0 10.0 0.00 0.00 0.00 43 1008.2
20200408020004 53 90 2.0 11.0 0.00 0.00 0.00 43 1008.2
20200408015904 53 90 4.0 11.0 0.00 0.00 0.00 43 1008.1
20200408015804 54 90 4.0 11.0 0.00 0.00 0.00 43 1008.2
20200408015704 54 90 3.0 11.0 0.00 0.00 0.00 43 1008.1
20200408015604 54 90 5.0 11.0 0.00 0.00 0.00 43 1008.1
20200408015504 54 90 5.0 11.0 0.00 0.00 0.00 43 1008.2
20200408015404 54 90 5.0 11.0 0.00 0.00 0.00 43 1008.1
20200408015304 54 90 4.0 11.0 0.00 0.00 0.00 43 1008.1
20200408015204 54 90 5.0 11.0 0.00 0.00 0.00 42 1008.1
20200408015108 54 90 5.0 11.0 0.00 0.00 0.00 42 1008.2
20200408015005 54 90 7.0 11.0 0.00 0.00 0.00 42 1008.1
20200408014905 54 90 7.0 11.0 0.00 0.00 0.00 42 1008.1
20200408014805 54 90 6.0 10.0 0.00 0.00 0.00 42 1008.1
20200408014705 54 90 5.0 10.0 0.00 0.00 0.00 43 1008.1
20200408014605 54 90 4.0 10.0 0.00 0.00 0.00 43 1008.2
20200408014505 54 90 5.0 10.0 0.00 0.00 0.00 43 1008.0
20200408014405 54 90 6.0 10.0 0.00 0.00 0.00 43 1008.1
20200408014305 54 90 4.0 9.0 0.00 0.00 0.00 43 1008.0
20200408014205 54 90 2.0 9.0 0.00 0.00 0.00 43 1008.3
20200408014105 54 90 4.0 9.0 0.00 0.00 0.00 43 1008.2
20200408014004 54 90 4.0 9.0 0.00 0.00 0.00 43 1008.3
20200408013904 54 90 5.0 9.0 0.00 0.00 0.00 43 1008.2
20200408013804 54 90 4.0 13.0 0.00 0.00 0.00 43 1008.2
20200408013704 54 90 3.0 13.0 0.00 0.00 0.00 42 1008.2
20200408013604 54 90 2.0 13.0 0.00 0.00 0.00 42 1008.3
20200408013504 54 90 2.0 13.0 0.00 0.00 0.00 42 1008.2
20200408013404 54 90 2.0 13.0 0.00 0.00 0.00 42 1008.2
20200408013304 54 90 3.0 13.0 0.00 0.00 0.00 42 1008.2
20200408013204 54 90 4.0 13.0 0.00 0.00 0.00 42 1008.1
20200408013105 55 90 4.0 13.0 0.00 0.00 0.00 41 1008.2
20200408013005 55 90 5.0 13.0 0.00 0.00 0.00 41 1008.1
20200408012905 55 90 5.0 13.0 0.00 0.00 0.00 40 1008.1
20200408012805 55 90 5.0 13.0 0.00 0.00 0.00 40 1008.0
20200408012705 55 90 2.0 9.0 0.00 0.00 0.00 40 1008.2
20200408012605 55 90 3.0 9.0 0.00 0.00 0.00 40 1008.0
20200408012505 56 90 5.0 9.0 0.00 0.00 0.00 40 1008.0
20200408012405 56 90 3.0 9.0 0.00 0.00 0.00 40 1008.0
20200408012305 56 90 4.0 9.0 0.00 0.00 0.00 39 1008.1
20200408012205 56 90 3.0 9.0 0.00 0.00 0.00 40 1008.1
20200408012105 56 90 4.0 9.0 0.00 0.00 0.00 40 1008.0
20200408012005 56 90 4.0 9.0 0.00 0.00 0.00 40 1008.1
20200408011905 56 90 4.0 9.0 0.00 0.00 0.00 40 1008.1
20200408011804 56 90 5.0 9.0 0.00 0.00 0.00 40 1008.1
20200408011704 56 90 4.0 8.0 0.00 0.00 0.00 40 1008.0
20200408011604 56 90 4.0 8.0 0.00 0.00 0.00 40 1008.0
20200408011504 56 90 4.0 8.0 0.00 0.00 0.00 40 1007.9
20200408011404 56 90 4.0 8.0 0.00 0.00 0.00 40 1008.0
20200408011305 56 90 4.0 8.0 0.00 0.00 0.00 40 1008.1
20200408011205 56 90 5.0 8.0 0.00 0.00 0.00 40 1008.2
20200408011105 55 90 4.0 8.0 0.00 0.00 0.00 41 1008.1
20200408011005 55 90 5.0 8.0 0.00 0.00 0.00 41 1008.1
20200408010905 55 90 4.0 8.0 0.00 0.00 0.00 41 1008.2
20200408010805 55 90 5.0 8.0 0.00 0.00 0.00 41 1008.1
20200408010705 54 90 4.0 7.0 0.00 0.00 0.00 41 1008.2
20200408010607 54 90 4.0 7.0 0.00 0.00 0.00 41 1008.1
20200408010505 54 90 4.0 7.0 0.00 0.00 0.00 41 1008.1
20200408010405 54 90 4.0 8.0 0.00 0.00 0.00 41 1008.0
20200408010305 54 90 4.0 10.0 0.00 0.00 0.00 41 1008.1
20200408010205 54 90 4.0 11.0 0.00 0.00 0.00 41 1008.1
20200408010105 54 90 4.0 11.0 0.00 0.00 0.00 41 1008.0
20200408010006 54 90 4.0 11.0 0.00 0.00 0.00 41 1008.1
20200408005904 54 90 4.0 11.0 0.00 0.00 0.00 41 1008.0
20200408005804 54 90 3.0 11.0 0.00 0.00 0.00 41 1008.0
20200408005704 54 90 4.0 13.0 0.00 0.00 0.00 41 1008.1
20200408005605 54 90 4.0 13.0 0.00 0.00 0.00 41 1008.0
20200408005505 54 90 4.0 13.0 0.00 0.00 0.00 41 1007.9
20200408005405 55 90 5.0 13.0 0.00 0.00 0.00 40 1008.1
20200408005305 55 90 7.0 13.0 0.00 0.00 0.00 40 1008.1
20200408005206 55 90 6.0 13.0 0.00 0.00 0.00 40 1008.0
20200408005104 55 90 5.0 13.0 0.00 0.00 0.00 40 1008.0
20200408005006 55 90 5.0 13.0 0.00 0.00 0.00 40 1007.9
20200408004904 55 90 6.0 13.0 0.00 0.00 0.00 41 1007.9
20200408004804 55 90 5.0 13.0 0.00 0.00 0.00 41 1007.8
20200408004705 55 90 4.0 11.0 0.00 0.00 0.00 41 1008.0
20200408004605 55 90 6.0 11.0 0.00 0.00 0.00 41 1008.0
20200408004505 55 90 6.0 13.0 0.00 0.00 0.00 41 1007.9
20200408004405 54 90 6.0 13.0 0.00 0.00 0.00 41 1007.9
20200408004305 54 90 7.0 13.0 0.00 0.00 0.00 41 1007.9
20200408004205 54 90 5.0 13.0 0.00 0.00 0.00 41 1007.9
20200408004105 55 90 4.0 13.0 0.00 0.00 0.00 41 1007.8
20200408004005 55 90 4.0 13.0 0.00 0.00 0.00 41 1008.0
20200408003905 55 90 4.0 13.0 0.00 0.00 0.00 40 1008.1
20200408003804 55 90 4.0 13.0 0.00 0.00 0.00 40 1008.0
20200408003704 55 90 4.0 13.0 0.00 0.00 0.00 40 1008.0
20200408003605 55 90 8.0 13.0 0.00 0.00 0.00 40 1008.0
20200408003504 55 90 7.0 13.0 0.00 0.00 0.00 40 1008.1
20200408003404 55 90 7.0 13.0 0.00 0.00 0.00 40 1008.1
20200408003304 56 90 7.0 13.0 0.00 0.00 0.00 40 1008.0
20200408003204 56 90 8.0 13.0 0.00 0.00 0.00 40 1008.0
20200408003104 56 90 6.0 13.0 0.00 0.00 0.00 40 1008.0
20200408003004 56 90 7.0 13.0 0.00 0.00 0.00 39 1007.9
20200408002904 56 90 7.0 14.0 0.00 0.00 0.00 39 1007.9
20200408002805 56 90 7.0 14.0 0.00 0.00 0.00 39 1007.9
20200408002705 57 89 4.0 14.0 0.00 0.00 0.00 39 1008.0
20200408002605 57 87 3.0 14.0 0.00 0.00 0.00 39 1008.0
20200408002505 57 85 4.0 14.0 0.00 0.00 0.00 39 1007.9
20200408002405 57 83 8.0 14.0 0.00 0.00 0.00 38 1008.0
20200408002305 58 80 6.0 14.0 0.00 0.00 0.00 38 1007.9
20200408002205 58 79 5.0 14.0 0.00 0.00 0.00 38 1007.9
20200408002105 58 77 8.0 14.0 0.00 0.00 0.00 38 1008.0
20200408002005 59 75 7.0 14.0 0.00 0.00 0.00 38 1008.0
20200408001905 59 72 8.0 13.0 0.00 0.00 0.00 39 1008.0
20200408001804 59 70 8.0 12.0 0.00 0.00 0.00 38 1007.9
20200408001704 59 69 8.0 12.0 0.00 0.00 0.00 38 1007.9
20200408001604 59 68 8.0 12.0 0.00 0.00 0.00 39 1007.8
20200408001505 58 68 6.0 11.0 0.00 0.00 0.00 39 1008.0
20200408001404 58 68 6.0 11.0 0.00 0.00 0.00 39 1008.0
20200408001010 57 68 4.0 10.0 0.00 0.00 0.00 40 1007.9
20200408000909 57 68 6.0 10.0 0.00 0.00 0.00 40 1007.9
20200408000805 57 68 6.0 10.0 0.00 0.00 0.00 40 1007.9
20200408000705 58 68 4.0 11.0 0.00 0.00 0.00 40 1007.9
20200408000605 58 67 4.0 11.0 0.00 0.00 0.00 40 1007.9
20200408000504 58 64 4.0 11.0 0.00 0.00 0.00 40 1007.9
20200408000405 58 62 4.0 11.0 0.00 0.00 0.00 40 1007.9
20200408000305 58 60 4.0 11.0 0.00 0.00 0.00 40 1008.0
20200408000204 58 58 4.0 11.0 0.00 0.00 0.00 40 1007.8
20200408000104 58 56 4.0 11.0 0.00 0.00 0.00 40 1007.9
20200408000004 58 54 4.0 11.0 0.00 0.00 0.00 40 1008.0
20200407235904 58 51 5.0 11.0 0.00 0.00 0.00 40 1007.9
20200407235804 58 50 6.0 11.0 0.00 0.00 0.00 40 1008.1
20200407235704 57 47 8.0 11.0 0.00 0.00 0.00 40 1007.9
20200407235605 57 46 8.0 11.0 0.00 0.00 0.00 41 1008.0
20200407235505 57 46 6.0 11.0 0.00 0.00 0.00 41 1008.0
20200407235405 57 45 4.0 11.0 0.00 0.00 0.00 41 1008.1
20200407235305 57 45 5.0 11.0 0.00 0.00 0.00 41 1008.1
20200407235205 57 45 5.0 11.0 0.00 0.00 0.00 41 1008.0
20200407235105 56 45 5.0 11.0 0.00 0.00 0.00 40 1008.0
20200407235005 56 45 4.0 11.0 0.00 0.00 0.00 40 1007.9
20200407234905 57 45 3.0 11.0 0.00 0.00 0.00 40 1008.0
20200407234805 57 46 4.0 11.0 0.00 0.00 0.00 40 1008.1
20200407234705 57 46 7.0 11.0 0.00 0.00 0.00 39 1008.1
20200407234604 57 46 6.0 11.0 0.00 0.00 0.00 39 1008.0
20200407234505 57 46 6.0 11.0 0.00 0.00 0.00 39 1007.9
20200407234405 58 46 5.0 11.0 0.00 0.00 0.00 39 1008.0
20200407234304 58 46 6.0 11.0 0.00 0.00 0.00 39 1008.0
20200407234204 58 46 6.0 11.0 0.00 0.00 0.00 39 1008.0
20200407234104 58 46 5.0 11.0 0.00 0.00 0.00 39 1008.1
20200407234005 59 45 4.0 11.0 0.00 0.00 0.00 39 1008.0
20200407233905 59 45 4.0 11.0 0.00 0.00 0.00 40 1008.0
20200407233805 59 46 7.0 11.0 0.00 0.00 0.00 39 1008.0
20200407233705 59 46 8.0 11.0 0.00 0.00 0.00 39 1008.0
20200407233606 59 46 6.0 10.0 0.00 0.00 0.00 40 1008.0
20200407233505 59 46 6.0 12.0 0.00 0.00 0.00 40 1008.0
20200407233406 59 46 3.0 12.0 0.00 0.00 0.00 40 1008.0
20200407233305 59 45 3.0 12.0 0.00 0.00 0.00 40 1007.9
20200407233205 59 45 4.0 13.0 0.00 0.00 0.00 40 1008.0
20200407233105 59 45 7.0 14.0 0.00 0.00 0.00 40 1008.0
20200407233005 59 46 5.0 14.0 0.00 0.00 0.00 40 1008.0
20200407232905 59 46 6.0 14.0 0.00 0.00 0.00 39 1008.0
20200407232805 59 46 5.0 14.0 0.00 0.00 0.00 39 1007.9
20200407232705 59 45 6.0 14.0 0.00 0.00 0.00 39 1007.9
20200407232605 59 45 8.0 14.0 0.00 0.00 0.00 38 1007.8
20200407232505 60 45 8.0 14.0 0.00 0.00 0.00 38 1007.9
20200407232405 60 45 7.0 14.0 0.00 0.00 0.00 38 1007.9
20200407232305 60 46 8.0 17.0 0.00 0.00 0.00 38 1007.9
20200407232205 60 46 9.0 17.0 0.00 0.00 0.00 38 1007.9
20200407232105 60 46 8.0 17.0 0.00 0.00 0.00 39 1007.9
20200407232004 60 46 8.0 17.0 0.00 0.00 0.00 40 1007.9
20200407231904 60 46 6.0 17.0 0.00 0.00 0.00 40 1007.8
20200407231804 60 46 7.0 17.0 0.00 0.00 0.00 40 1007.9
20200407231704 59 48 5.0 17.0 0.00 0.00 0.00 41 1007.9
20200407231604 59 50 5.0 17.0 0.00 0.00 0.00 41 1007.9
20200407231504 58 54 2.0 17.0 0.00 0.00 0.00 41 1007.9
20200407231404 58 56 5.0 17.0 0.00 0.00 0.00 40 1007.9
20200407231305 58 59 5.0 17.0 0.00 0.00 0.00 40 1007.8
20200407231205 58 62 4.0 11.0 0.00 0.00 0.00 41 1007.9
20200407231105 58 64 3.0 11.0 0.00 0.00 0.00 40 1007.9
20200407231005 58 65 3.0 11.0 0.00 0.00 0.00 40 1007.9
20200407230905 58 66 4.0 11.0 0.00 0.00 0.00 39 1007.8
20200407230805 58 68 4.0 13.0 0.00 0.00 0.00 39 1007.8
20200407230705 59 69 9.0 13.0 0.00 0.00 0.00 38 1007.9
20200407230605 59 69 9.0 13.0 0.00 0.00 0.00 38 1007.8
20200407230505 59 69 9.0 13.0 0.00 0.00 0.00 38 1008.0
20200407230405 59 69 9.0 13.0 0.00 0.00 0.00 38 1007.9
20200407230304 59 69 9.0 13.0 0.00 0.00 0.00 38 1008.1
20200407230204 59 68 9.0 13.0 0.00 0.00 0.00 38 1008.0
20200407230104 59 69 9.0 13.0 0.00 0.00 0.00 38 1008.0
20200407230005 59 69 9.0 13.0 0.00 0.00 0.00 38 1008.0
20200407225904 59 68 8.0 13.0 0.00 0.00 0.00 39 1008.0
20200407225804 59 67 7.0 15.0 0.00 0.00 0.00 40 1008.0
20200407225704 59 64 7.0 15.0 0.00 0.00 0.00 39 1008.1
20200407225605 59 66 9.0 17.0 0.00 0.00 0.00 39 1008.0
20200407225505 59 62 7.0 17.0 0.00 0.00 0.00 39 1008.0
20200407225405 59 61 7.0 17.0 0.00 0.00 0.00 40 1008.2
20200407225305 59 59 6.0 17.0 0.00 0.00 0.00 40 1008.1
20200407225205 59 58 5.0 17.0 0.00 0.00 0.00 40 1008.1
20200407225105 59 56 7.0 17.0 0.00 0.00 0.00 39 1008.0
20200407225004 60 54 8.0 17.0 0.00 0.00 0.00 39 1008.0
20200407224904 60 52 8.0 17.0 0.00 0.00 0.00 39 1008.1
20200407224804 60 51 10.0 17.0 0.00 0.00 0.00 39 1008.0
20200407224704 61 51 12.0 17.0 0.00 0.00 0.00 40 1007.9
20200407224604 61 46 11.0 16.0 0.00 0.00 0.00 40 1008.0
20200407224505 61 46 8.0 15.0 0.00 0.00 0.00 41 1007.9
20200407224405 61 46 2.0 11.0 0.00 0.00 0.00 42 1007.9
20200407224304 60 46 4.0 11.0 0.00 0.00 0.00 42 1007.9
20200407224205 60 45 4.0 11.0 0.00 0.00 0.00 42 1008.1
20200407224105 60 45 4.0 11.0 0.00 0.00 0.00 42 1008.0
20200407224005 60 45 5.0 11.0 0.00 0.00 0.00 41 1008.1
20200407223905 60 45 5.0 11.0 0.00 0.00 0.00 41 1008.0
20200407223805 60 45 6.0 12.0 0.00 0.00 0.00 41 1008.1
20200407223705 60 45 5.0 12.0 0.00 0.00 0.00 41 1008.1
20200407223604 60 45 8.0 12.0 0.00 0.00 0.00 42 1008.2
20200407223506 59 45 6.0 12.0 0.00 0.00 0.00 43 1008.2
20200407223405 59 45 6.0 12.0 0.00 0.00 0.00 43 1008.2
20200407223305 58 45 4.0 12.0 0.00 0.00 0.00 43 1008.1
20200407223205 58 45 5.0 12.0 0.00 0.00 0.00 43 1008.1
20200407223105 58 45 4.0 12.0 0.00 0.00 0.00 43 1008.2
20200407223005 58 45 3.0 12.0 0.00 0.00 0.00 43 1008.3
20200407222905 58 45 5.0 12.0 0.00 0.00 0.00 43 1008.3
20200407222805 58 46 9.0 15.0 0.00 0.00 0.00 43 1008.3
20200407222705 59 46 7.0 15.0 0.00 0.00 0.00 42 1008.2
20200407222605 59 46 6.0 15.0 0.00 0.00 0.00 42 1008.2
20200407222504 59 45 5.0 15.0 0.00 0.00 0.00 42 1008.2
20200407222405 59 45 4.0 15.0 0.00 0.00 0.00 43 1008.2
20200407222305 59 45 4.0 15.0 0.00 0.00 0.00 43 1008.2
20200407222205 59 45 4.0 15.0 0.00 0.00 0.00 42 1008.2
20200407222105 59 45 4.0 15.0 0.00 0.00 0.00 42 1008.3